CW1648 Weather Reports


Display with metric or nautical units.
time (UTC)temp
F
wind
direction
speed
MPH
gust
MPH
rain 1hr
in
rain 24hr
in
rain mn
in
humidity
%
barometer
mb
20260903161906 84 215 0.0 0.0 0.00 0.61 0.60 74 1011.9
20260903161822 84 200 0.0 0.0 0.00 0.61 0.60 74 1011.9
20260903161805 84 199 0.0 0.0 0.00 0.61 0.60 74 1011.9
20260903161705 84 199 0.0 0.0 0.00 0.61 0.60 75 1011.7
20260903161605 84 256 0.0 0.0 0.00 0.61 0.60 75 1011.7
20260903161519 84 234 0.0 0.0 0.00 0.61 0.60 76 1011.6
20260903161504 83 240 0.0 0.0 0.00 0.61 0.60 76 1011.7
20260903161403 83 215 0.0 0.0 0.00 0.61 0.60 77 1011.7
20260903161323 83 215 0.0 0.0 0.00 0.61 0.60 77 1011.7
20260903161302 83 217 0.0 0.0 0.00 0.61 0.60 77 1011.7
20260903161202 83 215 0.0 0.0 0.00 0.61 0.60 77 1011.7
20260903161101 83 205 0.0 0.0 0.00 0.61 0.60 77 1011.8
20260903161020 83 205 0.0 0.0 0.00 0.61 0.60 77 1010.8
20260903161000 83 205 0.0 0.0 0.00 0.61 0.60 77 1010.9
20260903160900 83 205 0.0 0.0 0.00 0.61 0.60 76 1010.9
20260903160822 83 205 0.0 0.0 0.00 0.61 0.60 78 1010.9
20260903160812 83 228 0.0 0.0 0.00 0.61 0.60 78 1012.1
20260903160807 83 202 0.0 0.0 0.00 0.61 0.60 78 1011.1
20260903160557 83 229 0.0 0.0 0.00 0.61 0.60 77 1012.1
20260903160524 83 229 0.0 0.0 0.00 0.61 0.60 77 1012.1
20260903160520 83 229 0.0 0.0 0.00 0.61 0.60 77 1012.1
20260903160411 82 269 0.0 0.0 0.00 0.61 0.60 76 1012.1
20260903160402 82 243 0.0 0.0 0.00 0.61 0.60 77 1012.1
20260903160155 82 261 0.0 0.0 0.00 0.61 0.60 77 1010.1
20260903160055 82 317 0.0 0.0 0.00 0.61 0.60 77 1010.1
20260903160036 82 273 0.0 0.0 0.00 0.61 0.60 78 1011.8
20260903160019 82 213 0.0 0.0 0.00 0.61 0.60 77 1011.8
20260903155955 82 287 0.0 0.0 0.00 0.61 0.60 77 1011.8
20260903155927 82 257 0.0 0.0 0.00 0.61 0.60 78 1011.8
20260903155753 82 281 0.0 0.0 0.00 0.61 0.60 78 1011.8
20260903155652 82 237 0.0 0.0 0.00 0.61 0.60 79 1012.2
20260903155552 82 219 0.0 0.0 0.00 0.61 0.60 79 1011.8
20260903155519 82 9 0.0 0.0 0.00 0.61 0.60 79 1011.8
20260903155451 82 302 0.0 0.0 0.00 0.61 0.60 79 1011.8
20260903155350 82 212 0.0 0.0 0.00 0.61 0.60 79 1011.9
20260903155319 82 212 0.0 0.0 0.00 0.61 0.60 79 1011.9
20260903155250 82 212 0.0 0.0 0.00 0.61 0.60 79 1012.4
20260903155150 82 212 0.0 0.0 0.00 0.61 0.60 79 1012.5
20260903155127 82 207 0.0 0.0 0.00 0.61 0.60 79 1012.5
20260903155047 82 212 0.0 0.0 0.00 0.61 0.60 79 1012.5
20260903155023 82 209 0.0 0.0 0.00 0.61 0.60 78 1012.6
20260903155019 82 209 0.0 0.0 0.00 0.61 0.60 79 1012.6
20260903155014 82 209 0.0 0.0 0.00 0.61 0.60 79 1012.5
20260903154755 82 207 0.0 0.0 0.00 0.61 0.60 78 1012.3
20260903154546 82 143 0.0 0.0 0.00 0.61 0.60 77 1012.4
20260903154519 82 243 0.0 0.0 0.00 0.61 0.60 77 1012.6
20260903154446 82 264 0.0 0.0 0.00 0.61 0.60 77 1012.6
20260903154344 82 267 0.0 0.0 0.00 0.61 0.60 78 1012.5
20260903154316 82 236 0.0 0.0 0.00 0.61 0.60 78 1012.5
20260903154244 82 190 0.0 0.0 0.00 0.61 0.60 78 1012.3
20260903154143 82 190 0.0 0.0 0.00 0.61 0.60 78 1012.2
20260903154046 82 222 0.0 0.0 0.00 0.61 0.60 78 1012.3
20260903154039 82 262 0.0 0.0 0.00 0.61 0.60 78 1011.7
20260903154019 82 230 0.0 0.0 0.00 0.61 0.60 78 1012.4
20260903153943 82 306 0.0 0.0 0.00 0.61 0.60 78 1012.4
20260903153924 82 263 0.0 0.0 0.00 0.61 0.60 78 1011.7
20260903153756 82 255 0.0 0.0 0.00 0.61 0.60 78 1012.6
20260903153750 82 265 0.0 0.0 0.00 0.61 0.60 79 1012.3
20260903153605 82 209 0.0 0.0 0.00 0.61 0.60 79 1012.2
20260903153541 82 256 0.0 0.0 0.00 0.61 0.60 78 1012.3
20260903153534 82 241 0.0 0.0 0.00 0.61 0.60 79 1011.6
20260903153508 82 259 0.0 0.0 0.00 0.61 0.60 79 1012.2
20260903153503 82 252 0.0 0.0 0.00 0.61 0.60 79 1011.6
20260903153454 82 209 0.0 0.0 0.00 0.61 0.60 79 1012.2
20260903153154 82 221 0.0 0.0 0.00 0.61 0.60 78 1012.5
20260903153149 82 221 0.0 0.0 0.00 0.61 0.60 78 1012.5
20260903153020 82 285 0.0 0.0 0.00 0.61 0.60 78 1012.5
20260903152939 82 285 0.0 0.0 0.00 0.61 0.60 78 1012.5
20260903152837 82 212 0.0 0.0 0.00 0.61 0.60 78 1012.7
20260903152812 82 213 0.0 0.0 0.00 0.61 0.60 78 1012.7
20260903152737 82 229 0.0 0.0 0.00 0.61 0.60 78 1012.7
20260903152637 82 203 0.0 0.0 0.00 0.61 0.60 79 1012.8
20260903152536 82 163 0.0 0.0 0.00 0.61 0.60 78 1012.7
20260903152519 82 163 0.0 0.0 0.00 0.61 0.60 77 1012.8
20260903152435 82 162 0.0 0.0 0.00 0.61 0.60 77 1012.8
20260903152335 82 209 0.0 0.0 0.00 0.61 0.60 76 1012.8
20260903152312 82 284 0.0 0.0 0.00 0.61 0.60 77 1012.8
20260903152234 82 336 0.0 0.0 0.00 0.61 0.60 77 1012.9
20260903152136 82 261 0.0 0.0 0.00 0.61 0.60 77 1012.8
20260903152129 82 259 0.0 0.0 0.00 0.61 0.60 77 1012.9
20260903152125 82 259 0.0 0.0 0.00 0.61 0.60 77 1012.9
20260903152118 82 252 0.0 0.0 0.00 0.61 0.60 77 1012.9
20260903152019 82 283 0.0 0.0 0.00 0.61 0.60 77 1012.9
20260903152005 82 283 0.0 0.0 0.00 0.61 0.60 76 1012.9
20260903151956 82 287 0.0 0.0 0.00 0.61 0.60 77 1012.9
20260903151531 82 264 0.0 0.0 0.00 0.61 0.60 77 1012.9
20260903151519 82 264 0.0 0.0 0.00 0.61 0.60 77 1012.5
20260903151431 82 261 0.0 0.0 0.00 0.61 0.60 77 1012.5
20260903151350 82 259 0.0 0.0 0.00 0.61 0.60 78 1011.9
20260903151345 82 306 0.0 0.0 0.00 0.61 0.60 78 1012.7
20260903151337 82 318 0.0 0.0 0.00 0.61 0.60 78 1012.7
20260903151144 82 196 0.0 0.0 0.00 0.61 0.60 80 1009.0
20260903151138 82 284 0.0 0.0 0.00 0.61 0.60 78 1011.9
20260903151034 82 196 0.0 0.0 0.00 0.61 0.60 80 1008.9
20260903150928 82 196 0.0 0.0 0.00 0.61 0.60 80 1009.0
20260903150827 82 196 0.0 0.0 0.00 0.61 0.60 81 1009.0
20260903150809 82 194 0.0 0.0 0.00 0.61 0.60 81 1009.0
20260903150727 82 220 0.0 0.0 0.00 0.61 0.60 81 1009.0
20260903150627 82 266 0.0 0.0 0.00 0.61 0.60 82 1009.0
20260903150526 81 235 0.0 0.0 0.00 0.61 0.60 81 1008.9
20260903150519 81 236 0.0 0.0 0.00 0.61 0.60 81 1008.9
20260903150426 81 235 0.0 0.0 0.00 0.61 0.60 81 1008.9
20260903150324 81 235 0.0 0.0 0.00 0.61 0.60 81 1009.1
20260903150306 81 245 0.0 0.0 0.00 0.61 0.60 81 1009.1
20260903150224 81 247 0.0 0.0 0.00 0.61 0.60 81 1008.6
20260903150124 81 248 0.0 0.0 0.00 0.61 0.60 81 1008.7
20260903150037 81 269 0.0 0.0 0.00 0.61 0.60 81 1010.2
20260903150032 81 257 0.0 0.0 0.00 0.61 0.60 81 1010.2
20260903150019 81 257 0.0 0.0 0.00 0.61 0.60 82 1010.2
20260903145806 81 271 0.0 0.0 0.00 0.61 0.60 81 1013.0
20260903145721 81 271 0.0 0.0 0.00 0.61 0.60 81 1013.0
20260903145635 81 270 0.0 0.0 0.00 0.61 0.60 80 1013.0
20260903145629 81 271 0.0 0.0 0.00 0.61 0.60 80 1013.0
20260903145520 81 270 0.0 0.0 0.00 0.61 0.60 80 1011.3
20260903145420 81 290 0.0 0.0 0.00 0.61 0.60 80 1011.3
20260903145306 81 263 0.0 0.0 0.00 0.61 0.60 80 1011.3
20260903145218 81 268 0.0 0.0 0.00 0.61 0.60 80 1011.3
20260903145131 81 268 0.0 0.0 0.00 0.61 0.60 81 1011.9
20260903145126 81 218 0.0 0.0 0.00 0.61 0.60 80 1011.3
20260903145019 81 269 0.0 0.0 0.00 0.61 0.60 80 1011.4
20260903144917 81 270 0.0 0.0 0.00 0.61 0.60 80 1011.4
20260903144804 81 254 0.0 0.0 0.00 0.61 0.60 81 1011.1
20260903144730 81 254 0.0 0.0 0.00 0.61 0.60 81 1011.2
20260903144724 81 250 0.0 0.0 0.00 0.61 0.60 81 1011.2
20260903144519 81 254 0.0 0.0 0.00 0.61 0.60 81 1010.6
20260903144515 81 254 0.0 0.0 0.00 0.61 0.60 81 1011.2
20260903144414 81 281 0.0 0.0 0.00 0.61 0.60 82 1010.6
20260903144314 80 305 0.0 0.0 0.00 0.61 0.60 84 1010.9
20260903144304 80 233 0.0 0.0 0.00 0.61 0.60 84 1010.9
20260903144214 80 232 0.0 0.0 0.00 0.61 0.60 83 1010.9
20260903144127 80 230 0.0 0.0 0.00 0.61 0.60 85 1011.6
20260903144122 80 232 0.0 0.0 0.00 0.61 0.60 83 1011.3
20260903144019 80 246 0.0 0.0 0.00 0.61 0.60 85 1012.2
20260903143912 80 242 0.0 0.0 0.00 0.61 0.60 85 1012.2
20260903143812 80 242 0.0 0.0 0.00 0.61 0.60 85 1012.1
20260903143803 80 242 0.0 0.0 0.00 0.61 0.60 84 1009.5
20260903143725 80 241 0.0 0.0 0.00 0.61 0.60 84 1009.5
20260903143720 80 241 0.0 0.0 0.00 0.61 0.60 84 1009.5
20260903143534 80 194 0.0 0.0 0.00 0.61 0.60 84 1011.8
20260903143510 80 194 0.0 0.0 0.00 0.61 0.60 84 1009.5
20260903143410 80 194 0.0 0.0 0.00 0.61 0.60 83 1011.8
20260903143310 79 201 0.0 0.0 0.00 0.61 0.60 84 1011.8
20260903143303 79 233 0.0 0.0 0.00 0.61 0.60 84 1011.8
20260903143209 79 331 0.0 0.0 0.00 0.61 0.60 84 1011.8
20260903143108 79 255 0.0 0.0 0.00 0.61 0.60 85 1011.3
20260903143019 79 199 0.0 0.0 0.00 0.61 0.60 85 1009.9
20260903143007 79 202 0.0 0.0 0.00 0.61 0.60 85 1009.9
20260903142907 79 267 0.0 0.0 0.00 0.61 0.60 85 1009.9
20260903142810 79 275 0.0 0.0 0.00 0.61 0.60 86 1010.6
20260903142803 79 288 0.0 0.0 0.00 0.61 0.60 86 1010.6
20260903142706 79 268 0.0 0.0 0.00 0.61 0.60 86 1008.6
20260903142607 79 246 0.0 0.0 0.00 0.61 0.60 88 1008.6
20260903142519 79 261 0.0 0.0 0.00 0.61 0.60 88 1008.6
20260903142506 79 261 0.0 0.0 0.00 0.61 0.60 88 1008.6
20260903142406 79 261 0.0 0.0 0.00 0.61 0.60 88 1008.6
20260903142306 78 261 0.0 0.0 0.00 0.61 0.60 88 1008.6
20260903142207 78 262 0.0 0.0 0.00 0.61 0.60 88 1008.5
20260903142200 78 224 0.0 0.0 0.00 0.61 0.60 89 1012.2
20260903142156 78 191 0.0 0.0 0.00 0.61 0.60 89 1011.8
20260903142149 78 262 0.0 0.0 0.00 0.61 0.60 87 1012.2
20260903142020 78 236 0.0 0.0 0.00 0.61 0.60 89 1012.2
20260903141927 78 259 0.0 0.0 0.00 0.61 0.60 89 1012.2
20260903141813 78 191 0.0 0.0 0.00 0.61 0.60 89 1011.8
20260903141602 78 276 0.0 0.0 0.00 0.61 0.60 91 1009.4
20260903141519 78 205 0.0 0.0 0.00 0.61 0.60 92 1009.4
20260903141502 78 205 0.0 0.0 0.00 0.61 0.60 92 1009.4
20260903141402 78 206 0.0 0.0 0.00 0.61 0.60 92 1009.4
20260903141301 78 206 0.0 0.0 0.00 0.61 0.60 93 1010.0
20260903141200 77 207 0.0 0.0 0.00 0.61 0.60 93 1010.0
20260903141100 77 252 0.0 0.0 0.00 0.61 0.60 93 1009.0
20260903141042 77 252 0.0 0.0 0.00 0.61 0.60 93 1008.7
20260903141019 77 250 0.0 0.0 0.00 0.61 0.60 93 1009.0
20260903140959 77 250 0.0 0.0 0.00 0.61 0.60 93 1009.0
20260903140942 77 252 0.0 0.0 0.00 0.61 0.60 94 1008.9
20260903140938 76 277 0.0 0.0 0.00 0.61 0.60 94 1008.8
20260903140931 77 251 0.0 0.0 0.00 0.61 0.60 93 1008.7
20260903140817 77 252 0.0 0.0 0.00 0.61 0.60 93 1008.7
20260903140520 76 250 0.0 0.0 0.00 0.61 0.60 94 1009.1
20260903140458 76 250 0.0 0.0 0.00 0.61 0.60 94 1009.1
20260903140358 76 258 0.0 0.0 0.00 0.61 0.60 95 1009.4
20260903140257 76 242 0.0 0.0 0.00 0.61 0.60 95 1010.5
20260903140157 76 241 0.0 0.0 0.00 0.61 0.60 95 1010.5
20260903140139 76 242 0.0 0.0 0.00 0.61 0.60 95 1010.3
20260903140133 76 241 0.0 0.0 0.00 0.61 0.60 95 1010.5
20260903140034 76 242 0.0 0.0 0.00 0.61 0.60 95 1010.3
20260903135910 76 238 0.0 0.0 0.00 0.61 0.60 95 1010.6
20260903135902 76 238 0.0 0.0 0.00 0.61 0.60 95 1010.5
20260903135655 76 242 0.0 0.0 0.00 0.61 0.60 95 1011.0
20260903135554 76 242 0.0 0.0 0.00 0.61 0.60 95 1010.6
20260903135523 75 257 0.0 0.0 0.00 0.61 0.60 96 1010.5
20260903135520 76 242 0.0 0.0 0.00 0.61 0.60 95 1010.6
20260903135453 76 257 0.0 0.0 0.00 0.61 0.60 95 1010.5
20260903135407 76 257 0.0 0.0 0.00 0.61 0.60 95 1010.5
20260903135253 75 257 0.0 0.0 0.00 0.61 0.60 96 1010.5
20260903135152 75 257 0.0 0.0 0.00 0.61 0.60 96 1010.5
20260903135106 75 237 0.0 0.0 0.00 0.61 0.60 96 1010.5
20260903135100 75 256 0.0 0.0 0.00 0.61 0.60 96 1010.5
20260903135020 75 237 0.0 0.0 0.00 0.61 0.60 96 1010.5
20260903134850 75 234 0.0 0.0 0.00 0.61 0.60 96 1010.5
20260903134809 75 281 0.0 0.0 0.00 0.61 0.60 97 1011.0
20260903134804 75 255 0.0 0.0 0.00 0.61 0.60 96 1011.0
20260903134758 75 278 0.0 0.0 0.00 0.61 0.60 96 1011.0
20260903134546 75 281 0.0 0.0 0.00 0.61 0.60 97 1011.0
20260903134520 75 281 0.0 0.0 0.00 0.61 0.60 97 1011.4
20260903134459 75 281 0.0 0.0 0.00 0.61 0.60 97 1011.5
20260903134454 75 281 0.0 0.0 0.00 0.61 0.60 97 1011.4
20260903134244 75 281 0.0 0.0 0.00 0.61 0.60 97 1011.9
20260903134144 75 281 0.0 0.0 0.00 0.61 0.60 97 1012.0
20260903134042 75 281 0.0 0.0 0.00 0.61 0.60 97 1012.0
20260903134019 75 281 0.0 0.0 0.00 0.61 0.60 98 1012.1
20260903134014 75 281 0.0 0.0 0.00 0.61 0.60 98 1012.0
20260903133941 75 281 0.0 0.0 0.00 0.61 0.60 98 1012.1
20260903133902 75 281 0.0 0.0 0.00 0.61 0.60 98 1012.0
20260903133741 75 281 0.0 0.0 0.00 0.61 0.60 98 1012.0
20260903133654 75 281 0.0 0.0 0.00 0.61 0.60 98 1009.6
20260903133649 75 281 0.0 0.0 0.00 0.61 0.60 98 1011.9
20260903133535 75 281 0.0 0.0 0.00 0.61 0.60 98 1009.6
20260903133439 75 281 0.0 0.0 0.00 0.61 0.60 98 1009.6
20260903133339 75 281 0.0 0.0 0.00 0.61 0.60 98 1009.6
20260903133252 75 281 0.0 0.0 0.00 0.61 0.60 98 1009.6
20260903133238 75 281 0.0 0.0 0.00 0.61 0.60 98 1009.6
20260903133138 74 281 0.0 0.0 0.00 0.61 0.60 98 1011.8
20260903133038 74 281 0.0 0.0 0.00 0.61 0.60 98 1011.8
20260903133019 74 290 0.0 0.0 0.00 0.61 0.60 98 1010.6
20260903132937 74 290 0.0 0.0 0.00 0.61 0.60 98 1010.6
20260903132836 74 290 0.0 0.0 0.00 0.61 0.60 98 1010.6
20260903132747 74 290 0.0 0.0 0.00 0.61 0.60 98 1010.6
20260903132738 74 290 0.0 0.0 0.00 0.61 0.60 98 1010.6
20260903132627 74 292 0.0 0.0 0.00 0.61 0.60 98 1011.8
20260903132623 74 292 0.0 0.0 0.00 0.61 0.60 98 1009.5
20260903132619 73 292 0.0 0.0 0.00 0.61 0.60 98 1009.5
20260903132612 74 292 0.0 0.0 0.00 0.61 0.60 98 1009.2
20260903132603 74 292 0.0 0.0 0.00 0.61 0.60 98 1009.2
20260903132519 74 292 0.0 0.0 0.00 0.61 0.60 98 1009.2
20260903132339 74 292 0.0 0.0 0.00 0.61 0.60 98 1011.8
20260903132020 73 292 0.0 0.0 0.00 0.61 0.60 98 1009.7
20260903131932 73 292 0.0 0.0 0.00 0.61 0.60 98 1009.7
20260903131856 73 292 0.0 0.0 0.00 0.61 0.60 98 1011.0
20260903131731 73 292 0.0 0.0 0.00 0.61 0.60 98 1011.0
20260903131630 73 292 0.0 0.0 0.00 0.61 0.60 98 1009.1
20260903131530 73 291 0.0 0.0 0.00 0.61 0.60 98 1009.1
20260903131520 73 291 0.0 0.0 0.00 0.61 0.60 98 1009.1
20260903131430 73 291 0.0 0.0 0.00 0.61 0.60 98 1009.1
20260903131329 73 294 0.0 0.0 0.00 0.61 0.60 98 1009.1
20260903131248 73 295 0.0 0.0 0.00 0.61 0.60 98 1009.2
20260903131242 73 200 0.0 0.0 0.00 0.61 0.60 98 1009.2
20260903131237 73 294 0.0 0.0 0.00 0.61 0.60 98 1009.2
20260903131028 73 200 0.0 0.0 0.00 0.61 0.60 98 1009.2
20260903131020 73 200 0.0 0.0 0.00 0.61 0.60 98 1009.2
20260903131017 73 200 0.0 0.0 0.00 0.61 0.60 98 1008.9
20260903130926 73 200 0.0 0.0 0.00 0.61 0.60 98 1009.2
20260903130857 73 200 0.0 0.0 0.00 0.61 0.60 98 1009.0
20260903130740 72 200 0.0 0.0 0.00 0.61 0.60 98 1009.4
20260903130735 73 200 0.0 0.0 0.00 0.61 0.60 98 1008.9
20260903130534 72 235 0.0 0.0 0.00 0.61 0.60 98 1009.2
20260903130525 72 235 0.0 0.0 0.00 0.61 0.60 98 1009.3
20260903130425 72 235 0.0 0.0 0.00 0.61 0.60 98 1009.2
20260903130323 72 235 0.0 0.0 0.00 0.61 0.60 98 1009.3
20260903130222 72 235 0.0 0.0 0.00 0.61 0.60 98 1009.8
20260903130120 72 235 0.0 0.0 0.00 0.61 0.60 98 1010.4
20260903130020 72 234 0.0 0.0 0.00 0.61 0.60 98 1010.4
20260903125920 72 229 0.0 0.0 0.00 0.61 0.60 98 1010.1
20260903125837 72 229 0.0 0.0 0.00 0.61 0.60 98 1010.4
20260903125832 72 229 0.0 0.0 0.00 0.61 0.60 98 1009.8
20260903125824 72 229 0.0 0.0 0.00 0.61 0.60 98 1010.4
20260903125624 72 229 0.0 0.0 0.00 0.61 0.60 98 1010.5
20260903125615 71 229 0.0 0.0 0.00 0.61 0.60 98 1011.2
20260903125549 72 229 0.0 0.0 0.00 0.61 0.60 98 1011.2
20260903125416 71 229 0.0 0.0 0.00 0.61 0.60 98 1011.2
20260903125353 71 229 0.0 0.0 0.00 0.61 0.60 98 1011.9
20260903125216 71 229 0.0 0.0 0.00 0.61 0.60 98 1012.3
20260903125113 71 229 0.0 0.0 0.00 0.61 0.60 98 1012.4
20260903125019 71 229 0.0 0.0 0.00 0.61 0.60 98 1012.6
20260903125013 71 229 0.0 0.0 0.00 0.61 0.60 98 1012.6
20260903124912 71 229 0.0 0.0 0.00 0.61 0.60 98 1012.6
20260903124812 71 229 0.0 0.0 0.00 0.61 0.60 98 1012.6
20260903124743 71 229 0.0 0.0 0.00 0.61 0.60 98 1012.6
20260903124711 71 229 0.0 0.0 0.00 0.61 0.60 98 1012.6
20260903124611 71 229 0.0 0.0 0.00 0.61 0.60 98 1012.6
20260903124521 71 229 0.0 0.0 0.00 0.61 0.60 97 1012.6
20260903124511 71 229 0.0 0.0 0.00 0.61 0.60 97 1012.6
20260903124410 71 229 0.0 0.0 0.00 0.61 0.60 97 1012.6
20260903124309 71 229 0.0 0.0 0.00 0.61 0.60 97 1012.6
20260903124241 71 229 0.0 0.0 0.00 0.61 0.60 97 1012.5
20260903124208 71 229 0.0 0.0 0.00 0.61 0.60 97 1012.5
20260903124108 71 229 0.0 0.0 0.00 0.61 0.60 97 1012.5
20260903124019 71 229 0.0 0.0 0.00 0.61 0.60 97 1012.5
20260903124009 71 229 0.0 0.0 0.00 0.61 0.60 97 1012.5
20260903123952 71 229 0.0 0.0 0.00 0.61 0.60 98 1012.4
20260903123948 71 229 0.0 0.0 0.00 0.61 0.60 98 1012.5
20260903123943 70 229 0.0 2.0 0.00 0.61 0.60 98 1012.4
20260903123938 71 229 0.0 0.0 0.00 0.61 0.60 98 1012.5
20260903123820 71 229 0.0 0.0 0.00 0.61 0.60 98 1012.5
20260903123519 70 229 0.0 3.0 0.00 0.61 0.60 97 1012.5
20260903123504 70 229 0.0 3.0 0.00 0.61 0.60 97 1012.4
20260903123404 70 229 0.0 3.0 0.00 0.61 0.60 97 1012.4
20260903123336 70 229 0.0 3.0 0.00 0.61 0.60 97 1012.5
20260903123332 70 229 0.0 3.0 0.00 0.61 0.60 97 1012.5
20260903123327 70 229 0.0 3.0 0.00 0.61 0.60 97 1012.4
20260903123320 70 229 0.0 3.0 0.00 0.61 0.60 97 1012.4
20260903123019 70 229 0.0 3.0 0.00 0.61 0.60 97 1012.6
20260903123001 70 229 0.0 3.0 0.00 0.61 0.60 97 1012.5
20260903122901 70 229 0.0 3.0 0.00 0.61 0.60 97 1012.5
20260903122801 70 229 0.0 3.0 0.00 0.61 0.60 97 1012.6
20260903122741 70 229 0.0 3.0 0.00 0.61 0.60 97 1012.6
20260903122659 70 229 0.0 3.0 0.00 0.61 0.60 97 1012.6
20260903122559 70 246 0.0 3.0 0.00 0.61 0.60 97 1012.7
20260903122519 70 250 0.0 1.0 0.00 0.61 0.60 97 1012.8
20260903122459 70 250 0.0 1.0 0.00 0.61 0.60 97 1012.7
20260903122358 70 250 0.0 1.0 0.00 0.61 0.60 98 1012.7
20260903122257 70 250 0.0 1.0 0.00 0.61 0.60 98 1012.7
20260903122240 70 250 0.0 1.0 0.00 0.61 0.60 98 1012.7
20260903122224 70 250 0.0 2.0 0.00 0.61 0.60 98 1012.8
20260903122220 70 250 0.0 2.0 0.00 0.61 0.60 98 1012.8
20260903122215 70 250 0.0 2.0 0.00 0.61 0.60 98 1012.7
20260903122021 70 250 0.0 1.0 0.00 0.61 0.60 98 1012.9
20260903121909 70 250 0.0 2.0 0.00 0.61 0.60 98 1012.8
20260903121904 70 250 0.0 2.0 0.00 0.61 0.60 98 1012.8
20260903121742 70 250 0.0 2.0 0.00 0.61 0.60 98 1012.8
20260903121655 70 250 0.0 2.0 0.00 0.61 0.60 98 1012.8
20260903121554 70 250 0.0 2.0 0.00 0.61 0.60 97 1012.7
20260903121519 70 250 0.0 2.0 0.00 0.61 0.60 97 1012.8
20260903121454 70 250 0.0 2.0 0.00 0.61 0.60 97 1012.7
20260903121353 70 250 0.0 2.0 0.00 0.61 0.60 97 1012.7
20260903121312 69 242 0.0 2.0 0.00 0.61 0.60 97 1012.7
20260903121300 70 250 0.0 2.0 0.00 0.61 0.60 97 1012.7
20260903121052 69 242 0.0 2.0 0.00 0.61 0.60 97 1012.7
20260903121020 70 242 0.0 2.0 0.00 0.61 0.60 97 1012.8
20260903120951 69 242 0.0 2.0 0.00 0.61 0.60 97 1012.7
20260903120850 69 242 0.0 2.0 0.00 0.61 0.60 97 1012.7
20260903120738 69 242 0.0 2.0 0.00 0.61 0.60 97 1012.6
20260903120649 69 242 0.0 2.0 0.00 0.61 0.60 97 1012.5
20260903120549 69 254 0.0 5.0 0.00 0.61 0.60 97 1012.5
20260903120519 69 252 0.0 5.0 0.00 0.61 0.60 97 1012.6
20260903120446 69 252 0.0 5.0 0.00 0.61 0.60 97 1012.5
20260903120346 69 252 0.0 5.0 0.00 0.61 0.60 97 1012.5
20260903120242 69 167 0.0 5.0 0.00 0.61 0.60 97 1012.3
20260903120238 69 252 0.0 5.0 0.00 0.61 0.60 97 1012.5
20260903120232 69 167 0.0 5.0 0.00 0.61 0.60 97 1012.3
20260903120226 69 167 0.0 5.0 0.00 0.61 0.60 97 1012.4
20260903120019 69 167 0.0 5.0 0.00 0.61 0.60 97 1012.4
20260903115854 69 167 0.0 5.0 0.00 0.61 0.60 97 1012.2
20260903115738 69 167 1.0 5.0 0.00 0.61 0.60 97 1012.1
20260903115642 69 167 1.0 7.0 0.00 0.61 0.60 97 1012.0
20260903115542 69 184 1.0 7.0 0.00 0.61 0.60 97 1012.0
20260903115534 69 302 0.0 7.0 0.00 0.61 0.60 97 1012.1
20260903115442 69 302 1.0 7.0 0.00 0.61 0.60 97 1012.0
20260903115340 69 306 1.0 7.0 0.00 0.61 0.60 97 1012.0
20260903115236 69 306 1.0 7.0 0.00 0.61 0.60 97 1012.0
20260903115154 69 306 1.0 7.0 0.00 0.61 0.60 97 1012.3
20260903115149 69 306 1.0 7.0 0.00 0.61 0.60 97 1012.1
20260903115020 69 306 0.0 7.0 0.00 0.61 0.60 97 1012.7
20260903114938 69 306 1.0 7.0 0.00 0.61 0.60 97 1012.6
20260903114838 69 309 1.0 7.0 0.00 0.61 0.60 97 1012.6
20260903114739 69 268 1.0 7.0 0.00 0.61 0.60 97 1012.4
20260903114651 69 271 1.0 2.0 0.00 0.61 0.60 97 1011.8
20260903114646 69 276 1.0 2.0 0.00 0.61 0.60 97 1012.2
20260903114519 69 222 0.0 2.0 0.00 0.61 0.60 97 1011.8
20260903114436 69 196 1.0 2.0 0.00 0.61 0.60 97 1011.7
20260903114336 69 213 1.0 2.0 0.00 0.61 0.60 97 1011.6
20260903114237 69 155 0.0 2.0 0.00 0.61 0.60 97 1011.6
20260903114135 69 146 0.0 2.0 0.00 0.61 0.60 97 1011.6
20260903114032 69 154 0.0 2.0 0.00 0.61 0.60 97 1011.8
20260903114020 69 159 0.0 2.0 0.00 0.61 0.60 97 1012.0
20260903113933 69 170 0.0 2.0 0.00 0.61 0.60 97 1011.9
20260903113926 69 190 0.0 1.0 0.00 0.61 0.60 97 1012.3
20260903113922 69 218 0.0 1.0 0.00 0.61 0.60 97 1012.5
20260903113915 69 191 0.0 2.0 0.00 0.61 0.60 97 1012.1
20260903113802 69 150 0.0 1.0 0.00 0.61 0.60 97 1012.2
20260903113756 69 148 0.0 1.0 0.00 0.61 0.60 97 1012.2
20260903113638 69 208 0.0 1.0 0.00 0.61 0.60 97 1012.4
20260903113520 69 218 0.0 1.0 0.00 0.61 0.60 97 1012.6
20260903113416 69 218 0.0 1.0 0.00 0.61 0.60 97 1012.5
20260903113301 69 218 0.0 1.0 0.00 0.61 0.60 97 1012.6
20260903113147 69 218 0.0 1.0 0.00 0.61 0.60 97 1012.7
20260903113020 69 218 0.0 1.0 0.00 0.61 0.60 97 1012.9
20260903112829 69 218 0.0 1.0 0.00 0.61 0.60 97 1012.8
20260903112748 69 198 0.0 1.0 0.00 0.61 0.60 97 1012.7
20260903112737 69 198 0.0 1.0 0.00 0.61 0.60 97 1012.8
20260903112613 69 198 0.0 1.0 0.00 0.61 0.60 97 1012.9
20260903112605 69 198 0.0 1.0 0.00 0.61 0.60 97 1013.0
20260903112559 69 198 0.0 1.0 0.00 0.61 0.60 97 1012.8
20260903112549 69 198 0.0 1.0 0.00 0.61 0.60 97 1012.9
20260903112520 69 198 0.0 1.0 0.00 0.61 0.60 97 1013.0
20260903112125 69 215 0.0 1.0 0.00 0.61 0.60 97 1013.1
20260903112025 69 123 0.0 1.0 0.00 0.61 0.60 97 1013.1
20260903112020 69 123 0.0 1.0 0.00 0.61 0.60 97 1013.1
20260903111925 69 123 0.0 1.0 0.00 0.61 0.60 97 1013.0
20260903111824 69 123 0.0 1.0 0.00 0.61 0.60 97 1013.0
20260903111724 69 123 0.0 1.0 0.00 0.61 0.60 97 1013.0
20260903111623 69 123 0.0 2.0 0.00 0.61 0.60 97 1013.1
20260903111534 69 122 0.0 2.0 0.00 0.61 0.60 97 1013.1
20260903111523 69 122 0.0 2.0 0.00 0.61 0.60 97 1013.0
20260903111424 69 122 0.0 2.0 0.00 0.61 0.60 97 1013.0
20260903111323 69 263 0.0 2.0 0.00 0.61 0.60 97 1013.0
20260903111223 69 200 0.0 2.0 0.00 0.61 0.60 97 1013.1
20260903111122 69 200 0.0 2.0 0.00 0.61 0.60 97 1013.1
20260903111022 69 200 0.0 2.0 0.00 0.61 0.60 97 1013.1
20260903111020 69 200 0.0 2.0 0.00 0.61 0.60 97 1013.3
20260903110936 69 202 0.0 2.0 0.00 0.61 0.60 97 1013.2
20260903110930 69 200 0.0 2.0 0.00 0.61 0.60 97 1013.2
20260903110721 69 203 0.0 2.0 0.00 0.61 0.60 97 1013.2
20260903110620 69 273 0.0 2.0 0.00 0.61 0.60 97 1013.2
20260903110545 69 134 0.0 2.0 0.00 0.61 0.60 97 1013.4
20260903110520 69 273 0.0 2.0 0.00 0.61 0.60 97 1013.4
20260903110449 69 134 0.0 2.0 0.00 0.61 0.60 97 1013.4
20260903110443 69 142 0.0 2.0 0.00 0.61 0.60 97 1013.3
20260903110434 69 142 0.0 2.0 0.00 0.61 0.60 97 1013.4
20260903110117 69 134 0.0 2.0 0.00 0.61 0.60 97 1013.4
20260903110020 69 199 0.0 1.0 0.00 0.61 0.60 97 1013.6
20260903110016 69 147 0.0 2.0 0.00 0.61 0.60 97 1013.4
20260903105945 69 287 0.0 1.0 0.00 0.61 0.60 97 1013.6
20260903105915 69 287 0.0 1.0 0.00 0.61 0.60 97 1013.5
20260903105831 69 287 0.0 1.0 0.00 0.61 0.60 97 1013.5
20260903105715 69 287 0.0 1.0 0.00 0.61 0.60 97 1013.6
20260903105614 69 287 0.0 1.0 0.00 0.61 0.60 97 1013.7
20260903105528 69 287 0.0 1.0 0.00 0.61 0.60 97 1013.9
20260903105523 69 287 0.0 1.0 0.00 0.61 0.60 97 1013.8
20260903105520 69 287 0.0 1.0 0.00 0.61 0.60 97 1014.0
20260903105312 69 287 0.0 1.0 0.00 0.61 0.60 97 1014.0
20260903105210 69 287 0.0 1.0 0.00 0.61 0.60 97 1014.0
20260903105109 69 287 0.0 1.0 0.00 0.61 0.60 97 1014.1
20260903105020 69 287 0.0 1.0 0.00 0.61 0.60 97 1014.1
20260903105009 69 287 0.0 1.0 0.00 0.61 0.60 97 1014.1
20260903104909 69 287 0.0 1.0 0.00 0.61 0.60 97 1014.0
20260903104821 69 287 0.0 1.0 0.00 0.61 0.60 97 1014.0
20260903104813 69 287 0.0 1.0 0.00 0.61 0.60 97 1014.0
20260903104605 69 287 0.0 1.0 0.00 0.61 0.60 97 1014.1
20260903104535 69 287 0.0 1.0 0.00 0.61 0.60 97 1014.2
20260903104506 69 287 0.0 1.0 0.00 0.61 0.60 97 1014.1
20260903104406 69 287 0.0 1.0 0.00 0.61 0.60 97 1014.1
20260903104320 69 287 0.0 1.0 0.00 0.61 0.60 97 1014.1
20260903104312 69 287 0.0 1.0 0.00 0.61 0.60 97 1014.1
20260903104104 69 287 0.0 1.0 0.00 0.61 0.60 97 1014.1
20260903104045 69 290 0.0 3.0 0.01 0.61 0.60 97 1014.1
20260903104039 69 287 0.0 2.0 0.00 0.61 0.60 97 1014.1
20260903104020 69 287 0.0 2.0 0.00 0.61 0.60 97 1014.2
20260903103925 69 287 0.0 3.0 0.00 0.61 0.60 97 1014.1
20260903103808 69 290 0.0 3.0 0.01 0.61 0.60 97 1014.1
20260903103602 69 290 0.0 3.0 0.01 0.61 0.60 97 1014.0
20260903103520 70 290 0.0 3.0 0.01 0.61 0.60 97 1014.1
20260903103502 69 290 0.0 3.0 0.01 0.61 0.60 97 1014.0
20260903103416 69 290 0.0 3.0 0.01 0.61 0.60 97 1014.0
20260903103411 69 290 0.0 3.0 0.01 0.61 0.60 97 1014.1
20260903103216 69 284 0.0 3.0 0.01 0.61 0.60 97 1014.0
20260903103159 69 266 0.0 3.0 0.01 0.61 0.60 97 1014.1
20260903103059 69 260 0.0 3.0 0.01 0.61 0.60 97 1014.0
20260903103041 69 248 0.0 3.0 0.01 0.61 0.60 97 1013.9
20260903103037 69 248 0.0 3.0 0.01 0.61 0.60 97 1013.9
20260903103035 70 261 0.0 3.0 0.01 0.61 0.60 97 1014.1
20260903103031 69 261 0.0 3.0 0.01 0.61 0.60 97 1014.0
20260903103022 69 248 0.0 2.0 0.01 0.61 0.60 97 1013.9
20260903102556 69 248 0.0 3.0 0.01 0.61 0.60 97 1013.8
20260903102520 69 248 0.0 3.0 0.01 0.61 0.60 97 1013.9
20260903102457 69 248 0.0 3.0 0.01 0.61 0.60 97 1013.8
20260903102356 69 293 0.0 3.0 0.01 0.61 0.60 97 1013.8
20260903102255 69 293 0.0 3.0 0.02 0.61 0.60 97 1013.8
20260903102213 69 293 0.0 3.0 0.02 0.61 0.60 97 1013.8
20260903102155 69 285 0.0 3.0 0.02 0.61 0.60 97 1013.7
20260903102054 69 260 0.0 3.0 0.02 0.61 0.60 97 1013.5
20260903102020 69 282 1.0 3.0 0.02 0.61 0.60 97 1013.5
20260903101954 69 280 0.0 3.0 0.02 0.61 0.60 97 1013.4
20260903101854 69 261 0.0 3.0 0.02 0.61 0.60 97 1013.3
20260903101753 69 211 0.0 2.0 0.02 0.61 0.60 97 1013.2
20260903101726 69 207 0.0 2.0 0.03 0.61 0.60 97 1013.3
20260903101721 69 173 0.0 2.0 0.03 0.61 0.60 97 1013.3
20260903101717 69 211 0.0 2.0 0.03 0.61 0.60 97 1013.2
20260903101710 69 161 0.0 2.0 0.03 0.61 0.60 97 1013.3
20260903101534 69 173 0.0 1.0 0.03 0.61 0.60 97 1013.4
20260903101351 69 154 0.0 2.0 0.03 0.61 0.60 97 1013.3
20260903101310 69 201 0.0 2.0 0.04 0.61 0.60 97 1013.3
20260903101305 69 153 0.0 2.0 0.03 0.61 0.60 97 1013.3
20260903101257 69 201 0.0 2.0 0.03 0.61 0.60 97 1013.3
20260903101050 69 188 0.0 1.0 0.04 0.61 0.60 97 1013.4
20260903101035 69 160 1.0 1.0 0.04 0.61 0.60 97 1013.6
20260903100948 69 159 0.0 1.0 0.04 0.61 0.60 97 1013.5
20260903100848 69 184 0.0 1.0 0.04 0.61 0.60 97 1013.6
20260903100821 69 184 0.0 1.0 0.05 0.61 0.60 97 1013.8
20260903100816 69 184 0.0 1.0 0.05 0.61 0.60 97 1013.8
20260903100802 69 184 0.0 1.0 0.05 0.61 0.60 97 1013.8
20260903100519 69 184 0.0 1.0 0.05 0.61 0.60 97 1013.9
20260903100446 69 184 0.0 1.0 0.05 0.61 0.60 97 1013.8
20260903100346 69 184 0.0 1.0 0.05 0.61 0.60 97 1013.7
20260903100245 69 246 0.0 1.0 0.06 0.61 0.60 97 1013.7
20260903100213 69 246 0.0 1.0 0.06 0.61 0.60 97 1013.7
20260903100144 69 246 0.0 1.0 0.06 0.61 0.60 97 1013.7
20260903100044 69 246 0.0 1.0 0.06 0.61 0.60 97 1013.7
20260903100020 69 287 1.0 1.0 0.06 0.61 0.60 97 1013.8
20260903095943 69 302 0.0 1.0 0.06 0.61 0.60 97 1013.7
20260903095842 69 167 0.0 1.0 0.07 0.61 0.60 97 1013.6
20260903095713 69 167 0.0 1.0 0.07 0.61 0.60 97 1013.6
20260903095640 69 167 0.0 1.0 0.07 0.61 0.60 97 1013.6
20260903095539 69 167 0.0 1.0 0.07 0.61 0.60 97 1013.6
20260903095520 69 282 0.0 1.0 0.07 0.61 0.60 97 1013.8
20260903095439 69 282 0.0 1.0 0.07 0.61 0.60 97 1013.7
20260903095339 69 282 0.0 1.0 0.08 0.61 0.60 97 1013.8
20260903095238 69 282 0.0 1.0 0.08 0.61 0.60 97 1013.8
20260903095212 69 282 0.0 2.0 0.08 0.61 0.60 97 1013.8
20260903095152 69 281 0.0 7.0 0.08 0.61 0.60 97 1013.8
20260903095146 69 282 0.0 4.0 0.08 0.61 0.60 97 1013.8
20260903095020 69 281 0.0 7.0 0.09 0.61 0.60 97 1013.9
20260903094937 69 281 1.0 7.0 0.09 0.61 0.60 97 1013.8
20260903094835 69 281 1.0 7.0 0.09 0.61 0.60 97 1013.8
20260903094735 69 9 1.0 7.0 0.09 0.61 0.60 97 1013.8
20260903094712 69 13 1.0 7.0 0.09 0.61 0.60 97 1013.8
20260903094635 69 14 1.0 7.0 0.09 0.61 0.60 97 1013.6
20260903094534 69 14 1.0 7.0 0.09 0.61 0.60 97 1013.7
20260903094520 69 14 0.0 7.0 0.09 0.61 0.60 97 1013.8
20260903094513 69 14 1.0 7.0 0.09 0.61 0.60 97 1013.7
20260903094401 69 252 1.0 7.0 0.09 0.61 0.60 97 1013.4
20260903094355 69 257 1.0 7.0 0.09 0.61 0.60 97 1013.6
20260903094239 69 228 1.0 7.0 0.09 0.61 0.60 97 1013.5
20260903094031 69 188 1.0 7.0 0.09 0.61 0.60 97 1013.2
20260903094020 69 188 0.0 7.0 0.09 0.61 0.60 97 1013.2
20260903093930 69 178 1.0 7.0 0.09 0.61 0.60 97 1013.1
20260903093844 69 213 1.0 7.0 0.08 0.60 0.59 97 1013.0
20260903093838 69 190 1.0 7.0 0.09 0.61 0.60 97 1013.0
20260903093710 69 170 1.0 7.0 0.08 0.60 0.59 97 1013.0
20260903093629 69 167 1.0 7.0 0.08 0.60 0.59 97 1013.0
20260903093528 69 184 1.0 8.0 0.09 0.60 0.59 97 1012.9
20260903093519 69 145 1.0 8.0 0.09 0.60 0.59 97 1012.9
20260903093427 69 140 2.0 8.0 0.09 0.60 0.59 97 1012.8
20260903093341 69 193 2.0 8.0 0.09 0.60 0.59 97 1012.8
20260903093335 69 147 2.0 8.0 0.09 0.60 0.59 97 1012.7
20260903093209 69 132 2.0 8.0 0.09 0.60 0.59 97 1012.8
20260903093126 69 173 1.0 8.0 0.09 0.60 0.59 97 1012.8
20260903093050 68 202 2.0 8.0 0.09 0.60 0.59 97 1013.0
20260903093025 68 189 1.0 8.0 0.09 0.60 0.59 97 1012.8
20260903092938 68 159 1.0 8.0 0.10 0.61 0.59 97 1013.0
20260903092924 68 170 1.0 8.0 0.09 0.60 0.59 97 1012.9
20260903092824 68 163 1.0 8.0 0.09 0.61 0.59 97 1012.9
20260903092815 68 166 1.0 8.0 0.10 0.61 0.59 97 1013.0
20260903092622 68 145 0.0 8.0 0.10 0.61 0.59 97 1013.1
20260903092534 68 151 1.0 2.0 0.10 0.61 0.59 97 1013.6
20260903092522 68 162 0.0 2.0 0.10 0.61 0.59 97 1013.3
20260903092421 68 180 0.0 2.0 0.10 0.61 0.59 97 1013.5
20260903092320 68 178 0.0 2.0 0.09 0.60 0.59 97 1013.6
20260903092220 68 192 0.0 2.0 0.10 0.60 0.58 97 1013.7
20260903092208 68 179 0.0 2.0 0.10 0.60 0.58 97 1013.7
20260903092119 68 170 0.0 1.0 0.11 0.60 0.58 97 1013.8
20260903092021 68 170 0.0 1.0 0.11 0.60 0.58 97 1014.0
20260903092019 68 170 0.0 1.0 0.12 0.60 0.58 97 1013.8
20260903091918 68 170 0.0 1.0 0.12 0.60 0.58 97 1013.9
20260903091818 68 170 0.0 1.0 0.13 0.60 0.58 97 1013.9
20260903091707 68 170 0.0 1.0 0.12 0.59 0.57 97 1013.9
20260903091617 68 170 0.0 1.0 0.12 0.59 0.57 97 1013.9
20260903091520 68 170 0.0 1.0 0.12 0.59 0.57 97 1013.9
20260903091517 68 170 0.0 1.0 0.12 0.59 0.57 97 1013.9
20260903091431 68 166 0.0 1.0 0.13 0.59 0.57 97 1013.9
20260903091425 68 165 0.0 1.0 0.13 0.59 0.57 97 1013.8
20260903091235 68 191 0.0 1.0 0.12 0.58 0.56 97 1014.0
20260903091230 68 191 0.0 1.0 0.13 0.59 0.57 97 1014.0
20260903091223 68 191 0.0 1.0 0.12 0.58 0.57 97 1014.0
20260903091035 68 191 0.0 1.0 0.12 0.58 0.56 97 1014.2
20260903091029 68 191 0.0 1.0 0.12 0.58 0.56 97 1014.1
20260903091023 68 191 0.0 1.0 0.12 0.58 0.56 97 1014.2
20260903090814 68 191 0.0 1.0 0.11 0.57 0.56 97 1014.1
20260903090714 68 192 0.0 1.0 0.11 0.57 0.55 97 1014.1
20260903090701 68 192 0.0 1.0 0.11 0.57 0.55 97 1014.0
20260903090613 68 177 0.0 1.0 0.11 0.57 0.55 97 1014.0
20260903090525 68 207 0.0 1.0 0.12 0.57 0.55 97 1014.1
20260903090520 68 207 1.0 1.0 0.12 0.57 0.55 97 1014.2
20260903090312 68 207 0.0 1.0 0.12 0.57 0.55 97 1014.2
20260903090208 68 207 0.0 1.0 0.11 0.56 0.55 97 1014.2
20260903090201 68 207 0.0 1.0 0.11 0.56 0.55 97 1014.1
20260903090107 68 207 0.0 1.0 0.11 0.56 0.54 97 1014.1
20260903090019 68 207 0.0 1.0 0.11 0.56 0.54 97 1014.1
20260903090007 68 207 0.0 1.0 0.12 0.56 0.54 97 1014.1
20260903085905 68 207 0.0 1.0 0.11 0.55 0.54 97 1014.0
20260903085806 68 207 0.0 1.0 0.11 0.55 0.53 97 1013.9
20260903085708 68 207 0.0 1.0 0.11 0.55 0.53 97 1013.8
20260903085701 68 207 0.0 1.0 0.11 0.55 0.53 97 1013.8
20260903085604 68 207 0.0 1.0 0.11 0.55 0.53 97 1013.8
20260903085520 68 207 0.0 1.0 0.11 0.55 0.53 97 1014.0
20260903085504 68 207 0.0 1.0 0.11 0.55 0.53 97 1013.9
20260903085403 68 207 0.0 1.0 0.11 0.54 0.53 97 1013.9
20260903085305 68 207 0.0 2.0 0.11 0.54 0.52 97 1014.0
20260903085200 68 207 0.0 2.0 0.11 0.54 0.52 97 1014.0
20260903085102 68 207 0.0 2.0 0.11 0.54 0.52 97 1014.0
20260903085020 68 207 0.0 2.0 0.10 0.53 0.51 97 1014.2
20260903085001 68 207 0.0 2.0 0.10 0.53 0.51 97 1014.1
20260903084901 68 207 0.0 2.0 0.10 0.53 0.51 97 1014.0
20260903084829 68 207 0.0 2.0 0.10 0.53 0.51 97 1014.0
20260903084712 68 137 0.0 2.0 0.10 0.53 0.51 97 1013.9
20260903084550 68 136 0.0 2.0 0.10 0.53 0.51 97 1014.0
20260903084500 68 136 0.0 2.0 0.10 0.53 0.51 97 1013.9
20260903084359 68 137 0.0 2.0 0.10 0.53 0.51 97 1014.0
20260903084259 68 136 0.0 2.0 0.10 0.53 0.51 97 1014.1
20260903084205 68 136 0.0 2.0 0.10 0.53 0.51 97 1014.2
20260903084159 68 137 0.0 2.0 0.10 0.53 0.51 97 1014.2
20260903084056 68 121 0.0 2.0 0.10 0.53 0.51 97 1014.3
20260903084019 68 9 0.0 2.0 0.10 0.53 0.51 97 1014.5
20260903084017 68 9 0.0 2.0 0.11 0.53 0.51 97 1014.4
20260903083904 68 9 0.0 2.0 0.11 0.53 0.51 97 1014.4
20260903083654 68 9 0.0 2.0 0.12 0.53 0.51 97 1014.4
20260903083554 68 152 0.0 2.0 0.11 0.52 0.50 97 1014.4
20260903083519 68 152 0.0 2.0 0.11 0.52 0.50 97 1014.5
20260903083454 68 152 0.0 2.0 0.11 0.52 0.50 97 1014.4
20260903083408 68 188 0.0 1.0 0.11 0.52 0.50 97 1014.6
20260903083402 68 165 0.0 2.0 0.11 0.52 0.50 97 1014.5
20260903083153 68 213 0.0 1.0 0.11 0.52 0.50 97 1014.6
20260903083114 68 213 0.0 1.0 0.11 0.52 0.50 97 1014.6
20260903083020 68 213 0.0 2.0 0.11 0.52 0.50 97 1014.8
20260903083000 68 213 0.0 2.0 0.11 0.52 0.50 97 1014.7
20260903082751 68 213 0.0 5.0 0.10 0.51 0.49 97 1014.8
20260903082650 68 213 0.0 5.0 0.10 0.51 0.49 97 1014.9
20260903082550 68 213 0.0 5.0 0.10 0.51 0.49 97 1014.9
20260903082520 68 213 0.0 5.0 0.10 0.51 0.49 97 1015.1
20260903082449 68 213 1.0 5.0 0.10 0.51 0.49 97 1015.0
20260903082349 68 217 1.0 5.0 0.10 0.51 0.49 97 1015.1
20260903082308 68 213 1.0 5.0 0.09 0.50 0.48 97 1015.4
20260903082306 68 211 1.0 5.0 0.09 0.50 0.49 97 1015.2
20260903082255 68 211 1.0 5.0 0.09 0.50 0.48 97 1015.4
20260903082047 68 213 1.0 5.0 0.08 0.49 0.47 97 1015.6
20260903082020 68 240 1.0 5.0 0.08 0.49 0.47 97 1015.8
20260903081946 68 252 1.0 5.0 0.07 0.48 0.47 97 1015.7
20260903081925 68 196 1.0 3.0 0.06 0.47 0.45 97 1016.0
20260903081846 68 250 1.0 5.0 0.06 0.47 0.46 97 1015.9
20260903081800 68 199 1.0 3.0 0.06 0.47 0.45 97 1016.1
20260903081645 68 196 1.0 3.0 0.06 0.47 0.45 97 1016.0
20260903081544 68 196 1.0 3.0 0.06 0.47 0.45 97 1016.0
20260903081520 68 195 1.0 3.0 0.06 0.47 0.45 97 1015.8
20260903081444 68 195 1.0 3.0 0.06 0.47 0.45 97 1015.7
20260903081344 68 195 1.0 3.0 0.05 0.46 0.44 97 1015.6
20260903081242 68 194 0.0 3.0 0.05 0.46 0.44 97 1015.3
20260903081142 68 194 0.0 3.0 0.05 0.46 0.44 97 1015.0
20260903081041 68 194 0.0 3.0 0.05 0.46 0.44 97 1014.8
20260903081020 68 181 1.0 3.0 0.05 0.46 0.44 97 1014.8
20260903080941 68 181 0.0 3.0 0.05 0.46 0.44 97 1014.7
20260903080841 68 169 0.0 2.0 0.05 0.46 0.44 97 1014.6
20260903080740 68 51 0.0 1.0 0.05 0.46 0.44 97 1014.7
20260903080639 68 51 0.0 2.0 0.05 0.46 0.44 97 1014.6
20260903080539 68 51 0.0 2.0 0.04 0.45 0.43 97 1014.7
20260903080520 68 51 0.0 2.0 0.04 0.45 0.43 97 1014.8
20260903080438 68 51 0.0 2.0 0.04 0.45 0.43 97 1014.7
20260903080337 68 95 0.0 2.0 0.04 0.45 0.43 97 1014.6
20260903080237 68 95 0.0 2.0 0.04 0.45 0.43 97 1014.7
20260903080137 68 95 0.0 4.0 0.04 0.45 0.43 97 1014.7
20260903080036 68 95 0.0 4.0 0.03 0.44 0.43 97 1014.8
20260903080021 68 95 0.0 4.0 0.04 0.45 0.43 97 1014.8
20260903075934 68 95 0.0 4.0 0.03 0.44 0.42 97 1014.7
20260903075848 68 95 0.0 4.0 0.03 0.44 0.42 97 1014.8
20260903075843 68 95 0.0 4.0 0.03 0.44 0.42 97 1014.7
20260903075651 68 96 0.0 4.0 0.03 0.44 0.42 97 1015.1
20260903075633 68 350 0.0 4.0 0.03 0.44 0.42 97 1015.1
20260903075533 68 292 0.0 4.0 0.03 0.44 0.42 97 1015.4
20260903075520 68 292 0.0 4.0 0.03 0.44 0.42 97 1015.6
20260903075445 68 292 0.0 4.0 0.02 0.43 0.41 97 1015.6
20260903075440 68 292 0.0 4.0 0.02 0.43 0.42 97 1015.5
20260903075246 68 293 0.0 4.0 0.02 0.43 0.41 97 1015.5
20260903075238 68 312 0.0 4.0 0.02 0.43 0.41 97 1015.5
20260903075031 68 312 0.0 4.0 0.02 0.43 0.41 97 1015.4
20260903075020 68 312 0.0 4.0 0.02 0.43 0.41 97 1015.5
20260903074930 68 309 0.0 4.0 0.02 0.43 0.41 97 1015.4
20260903074830 68 309 0.0 4.0 0.02 0.43 0.41 97 1015.4
20260903074729 68 308 0.0 4.0 0.02 0.43 0.41 97 1015.4
20260903074657 68 252 0.0 1.0 0.02 0.43 0.41 97 1015.4
20260903074650 68 252 0.0 0.0 0.02 0.43 0.41 97 1015.4
20260903074537 68 252 0.0 0.0 0.02 0.43 0.41 97 1015.3
20260903074520 68 252 0.0 0.0 0.02 0.43 0.41 97 1015.3
20260903074354 68 186 0.0 0.0 0.02 0.43 0.41 97 1015.0
20260903074240 68 186 0.0 0.0 0.02 0.43 0.41 97 1015.0
20260903074232 68 186 0.0 0.0 0.02 0.43 0.41 97 1015.0
20260903074025 68 186 0.0 0.0 0.02 0.43 0.41 97 1015.0
20260903074020 68 186 0.0 0.0 0.02 0.43 0.41 97 1015.1
20260903073926 68 186 0.0 0.0 0.01 0.42 0.41 97 1015.0
20260903073836 68 186 0.0 0.0 0.00 0.41 0.40 97 1015.0
20260903073831 68 186 0.0 0.0 0.01 0.42 0.40 97 1015.0
20260903073621 68 186 0.0 0.0 0.00 0.41 0.39 97 1015.0
20260903073604 68 186 0.0 0.0 0.00 0.41 0.39 97 1015.1
20260903073535 68 186 0.0 0.0 0.00 0.41 0.39 97 1015.0
20260903073530 68 186 0.0 0.0 0.00 0.41 0.39 97 1014.9
20260903073319 68 186 0.0 0.0 0.00 0.41 0.39 97 1014.9
20260903073219 68 186 0.0 0.0 0.00 0.41 0.39 97 1014.9
20260903073152 68 186 0.0 0.0 0.00 0.41 0.39 97 1014.8
20260903073118 68 186 0.0 0.0 0.00 0.41 0.39 97 1014.8
20260903073020 68 186 0.0 0.0 0.00 0.41 0.39 97 1014.7
20260903073018 68 186 0.0 0.0 0.00 0.41 0.39 97 1014.7
20260903072923 68 186 0.0 0.0 0.00 0.41 0.39 97 1014.4
20260903072917 68 186 0.0 0.0 0.00 0.41 0.39 97 1014.6
20260903072817 68 186 0.0 0.0 0.00 0.41 0.39 97 1014.4
20260903072805 68 186 0.0 0.0 0.00 0.41 0.39 97 1014.4
20260903072651 68 186 0.0 0.0 0.00 0.41 0.39 97 1014.4
20260903072538 68 186 0.0 0.0 0.00 0.41 0.39 97 1014.5
20260903072534 68 186 0.0 0.0 0.01 0.41 0.39 97 1014.6
20260903072529 68 186 0.0 0.0 0.00 0.41 0.39 97 1014.5
20260903072519 68 186 0.0 0.0 0.00 0.41 0.39 97 1014.6
20260903072415 68 186 0.0 0.0 0.00 0.41 0.39 97 1014.5
20260903072406 68 186 0.0 0.0 0.00 0.41 0.39 97 1014.6
20260903072145 68 186 0.0 0.0 0.01 0.41 0.39 97 1014.5
20260903072138 68 186 0.0 0.0 0.00 0.41 0.39 97 1014.5
20260903072050 68 186 0.0 0.0 0.00 0.41 0.39 97 1014.6
20260903071710 68 186 0.0 0.0 0.01 0.41 0.39 97 1014.5
20260903071646 68 186 0.0 0.0 0.01 0.41 0.39 97 1014.5
20260903071610 68 186 0.0 0.0 0.01 0.41 0.39 97 1014.5
20260903071519 68 186 0.0 0.0 0.01 0.41 0.39 97 1014.6
20260903071510 68 186 0.0 0.0 0.01 0.41 0.39 97 1014.5
20260903071409 68 186 0.0 0.0 0.01 0.41 0.39 97 1014.5
20260903071323 68 186 0.0 0.0 0.03 0.41 0.39 97 1014.4
20260903071318 68 186 0.0 0.0 0.02 0.41 0.39 97 1014.5
20260903071143 68 186 0.0 0.0 0.03 0.41 0.39 97 1014.5
20260903071108 68 186 0.0 0.0 0.03 0.41 0.39 97 1014.5
20260903071020 68 186 0.0 0.0 0.04 0.41 0.39 97 1014.5
20260903071014 68 186 0.0 0.0 0.04 0.41 0.39 97 1014.5
20260903070805 68 186 0.0 0.0 0.04 0.41 0.39 97 1014.5
20260903070705 68 186 0.0 0.0 0.04 0.41 0.39 97 1014.4
20260903070643 68 186 0.0 0.0 0.04 0.41 0.39 97 1014.4
20260903070604 68 186 0.0 0.0 0.04 0.41 0.39 97 1014.4
20260903070520 69 186 0.0 0.0 0.05 0.41 0.39 97 1014.5
20260903070503 69 186 0.0 0.0 0.05 0.41 0.39 97 1014.4
20260903070403 69 186 0.0 0.0 0.05 0.41 0.39 97 1014.4
20260903070303 69 186 0.0 0.0 0.05 0.41 0.39 97 1014.4
20260903070142 69 186 0.0 0.0 0.05 0.41 0.39 97 1014.4
20260903070019 69 186 0.0 0.0 0.06 0.41 0.39 97 1014.5
20260903070000 69 186 0.0 0.0 0.06 0.41 0.39 97 1014.4
20260903065859 69 186 0.0 0.0 0.06 0.41 0.39 97 1014.4
20260903065758 69 186 0.0 0.0 0.06 0.41 0.39 96 1014.4
20260903065640 69 186 0.0 0.0 0.07 0.41 0.39 96 1014.3
20260903065557 69 186 0.0 0.0 0.07 0.41 0.39 96 1014.4
20260903065520 69 186 0.0 0.0 0.07 0.41 0.39 96 1014.5
20260903065456 69 186 0.0 0.0 0.07 0.41 0.39 96 1014.4
20260903065356 69 186 0.0 0.0 0.07 0.41 0.39 96 1014.5
20260903065255 69 186 0.0 0.0 0.07 0.41 0.39 96 1014.5
20260903065141 69 186 0.0 0.0 0.08 0.41 0.39 96 1014.5
20260903065053 69 186 0.0 0.0 0.09 0.41 0.39 96 1014.4
20260903065035 69 186 0.0 0.0 0.09 0.41 0.39 96 1014.5
20260903064953 69 186 0.0 0.0 0.11 0.41 0.39 96 1014.4
20260903064853 69 186 0.0 0.0 0.11 0.41 0.39 96 1014.4
20260903064808 69 186 0.0 0.0 0.17 0.41 0.39 96 1014.3
20260903064803 69 186 0.0 0.0 0.14 0.41 0.39 96 1014.3
20260903064639 69 186 0.0 0.0 0.17 0.41 0.39 96 1014.3
20260903064551 69 186 0.0 0.0 0.22 0.41 0.39 96 1014.3
20260903064535 69 186 0.0 0.0 0.24 0.41 0.39 96 1014.3
20260903064451 69 186 0.0 0.0 0.26 0.41 0.39 96 1014.2
20260903064350 69 186 0.0 0.0 0.29 0.41 0.39 96 1014.2
20260903064248 69 186 0.0 0.0 0.31 0.41 0.39 96 1014.2
20260903064138 69 186 0.0 0.0 0.32 0.41 0.39 96 1014.2
20260903064046 69 186 0.0 0.0 0.33 0.41 0.39 96 1014.3
20260903064020 69 186 0.0 0.0 0.32 0.41 0.39 96 1014.4
20260903063945 69 186 0.0 0.0 0.33 0.41 0.39 96 1014.3
20260903063845 69 186 0.0 0.0 0.34 0.41 0.39 96 1014.4
20260903063744 69 186 0.0 0.0 0.34 0.41 0.39 96 1014.3
20260903063643 69 186 0.0 0.0 0.34 0.41 0.39 96 1014.3
20260903063637 69 186 0.0 0.0 0.35 0.41 0.39 96 1014.3
20260903063557 69 186 0.0 0.0 0.35 0.41 0.39 96 1014.3
20260903063552 69 186 0.0 0.0 0.35 0.41 0.39 96 1014.3
20260903063520 69 186 0.0 0.0 0.35 0.41 0.39 96 1014.4
20260903063342 69 186 0.0 0.0 0.35 0.41 0.39 96 1014.3
20260903063242 69 186 0.0 0.0 0.36 0.41 0.39 96 1014.4
20260903063136 69 186 0.0 0.0 0.36 0.41 0.39 96 1014.4
20260903063041 69 186 0.0 0.0 0.36 0.41 0.39 96 1014.4
20260903063020 69 186 0.0 0.0 0.36 0.41 0.39 96 1014.6
20260903062940 69 186 0.0 0.0 0.36 0.41 0.39 96 1014.5
20260903062840 69 186 0.0 0.0 0.37 0.41 0.39 96 1014.4
20260903062757 69 186 0.0 0.0 0.38 0.41 0.39 96 1014.3
20260903062751 69 186 0.0 0.0 0.37 0.41 0.39 96 1014.4
20260903062635 69 186 0.0 0.0 0.38 0.41 0.39 96 1014.3
20260903062538 69 186 0.0 0.0 0.38 0.41 0.39 96 1014.4
20260903062520 69 186 0.0 0.0 0.38 0.41 0.39 96 1014.5
20260903062438 69 186 0.0 0.0 0.38 0.41 0.39 96 1014.4
20260903062337 69 186 0.0 0.0 0.38 0.41 0.39 96 1014.5
20260903062237 69 186 0.0 0.0 0.38 0.41 0.39 96 1014.6
20260903062133 69 186 0.0 0.0 0.38 0.41 0.39 96 1014.6
20260903062037 69 186 0.0 0.0 0.38 0.41 0.39 96 1014.7
20260903062020 69 186 0.0 0.0 0.38 0.41 0.39 96 1014.8
20260903061937 69 186 0.0 0.0 0.38 0.40 0.39 96 1014.7
20260903061836 69 186 0.0 0.0 0.38 0.40 0.38 96 1014.8
20260903061736 69 186 0.0 0.0 0.38 0.40 0.38 96 1014.8
20260903061718 69 186 0.0 0.0 0.38 0.40 0.38 96 1014.9
20260903061705 69 186 0.0 0.0 0.38 0.40 0.38 96 1014.9
20260903061534 69 186 0.0 0.0 0.38 0.40 0.38 96 1015.1
20260903061444 69 186 0.0 0.0 0.38 0.40 0.38 96 1015.0
20260903061234 69 186 0.0 0.0 0.37 0.39 0.37 96 1015.1
20260903061135 69 186 0.0 0.0 0.36 0.38 0.37 96 1015.2
20260903061035 69 188 0.0 0.0 0.36 0.38 0.36 96 1015.3
20260903061033 69 188 0.0 0.0 0.36 0.38 0.36 96 1015.2
20260903061001 69 188 0.0 0.0 0.35 0.37 0.36 96 1015.2
20260903060832 69 187 0.0 0.0 0.35 0.37 0.35 96 1015.1
20260903060746 69 201 0.0 0.0 0.35 0.37 0.35 96 1015.1
20260903060736 69 263 0.0 0.0 0.35 0.37 0.35 96 1015.1
20260903060530 69 263 0.0 0.0 0.34 0.36 0.34 96 1015.2
20260903060521 69 263 0.0 0.0 0.34 0.36 0.34 96 1015.2
20260903060430 69 263 0.0 0.0 0.34 0.36 0.34 96 1015.1
20260903060330 69 263 0.0 0.0 0.34 0.36 0.34 96 1014.9
20260903060229 69 88 0.0 0.0 0.34 0.36 0.34 96 1014.8
20260903060128 69 144 0.0 0.0 0.34 0.36 0.34 96 1014.6
20260903060028 69 117 0.0 0.0 0.33 0.35 0.33 96 1014.5
20260903060020 69 117 0.0 0.0 0.33 0.35 0.33 96 1014.4
20260903055926 69 100 0.0 0.0 0.33 0.35 0.33 96 1014.3
20260903055825 69 132 0.0 0.0 0.33 0.35 0.33 96 1014.2
20260903055725 69 109 0.0 0.0 0.33 0.35 0.33 96 1014.0
20260903055631 69 96 0.0 0.0 0.32 0.34 0.33 96 1014.0
20260903055624 69 109 0.0 0.0 0.32 0.34 0.33 96 1014.0
20260903055524 69 103 0.0 0.0 0.32 0.34 0.32 96 1013.9
20260903055520 69 109 0.0 0.0 0.32 0.34 0.32 96 1014.2
20260903055437 69 165 0.0 0.0 0.32 0.34 0.32 96 1014.2
20260903055432 69 84 0.0 0.0 0.32 0.34 0.32 96 1014.1
20260903055249 69 107 0.0 0.0 0.32 0.34 0.32 96 1014.2
20260903055137 69 101 0.0 0.0 0.31 0.33 0.31 96 1014.2
20260903055130 69 92 0.0 0.0 0.31 0.33 0.31 96 1014.2
20260903055020 69 115 0.0 0.0 0.30 0.32 0.30 96 1014.5
20260903054921 69 134 0.0 0.0 0.28 0.30 0.29 96 1014.4
20260903054820 69 114 0.0 0.0 0.25 0.27 0.27 96 1014.6
20260903054720 69 101 0.0 0.0 0.22 0.24 0.24 96 1014.9
20260903054622 69 112 0.0 0.0 0.17 0.19 0.21 96 1015.4
20260903054535 69 209 0.0 0.0 0.15 0.17 0.15 96 1016.5
20260903054530 69 173 0.0 0.0 0.17 0.19 0.17 96 1015.9
20260903054320 69 220 0.0 0.0 0.10 0.12 0.10 96 1016.5
20260903054220 69 229 0.0 0.0 0.08 0.10 0.08 96 1016.7
20260903054125 69 230 0.0 0.0 0.07 0.09 0.07 96 1016.8
20260903054119 69 231 0.0 0.0 0.07 0.09 0.07 96 1016.8
20260903054020 69 255 0.0 0.0 0.07 0.09 0.07 96 1016.7
20260903054018 69 232 0.0 0.0 0.06 0.08 0.07 96 1016.7
20260903053918 69 274 0.0 0.0 0.06 0.08 0.06 96 1016.6
20260903053818 69 278 0.0 0.0 0.05 0.07 0.06 96 1016.4
20260903053716 69 323 0.0 0.0 0.05 0.07 0.05 96 1016.2
20260903053634 69 309 0.0 0.0 0.04 0.06 0.04 96 1015.9
20260903053625 69 309 0.0 0.0 0.04 0.06 0.05 96 1016.0
20260903053520 69 309 0.0 0.0 0.04 0.06 0.04 96 1015.9
20260903053415 69 309 0.0 0.0 0.04 0.06 0.04 95 1015.8
20260903053347 69 79 0.0 0.0 0.03 0.05 0.03 96 1015.7
20260903053343 69 79 0.0 0.0 0.03 0.05 0.03 96 1015.7
20260903053337 69 309 0.0 0.0 0.03 0.05 0.04 95 1015.7
20260903053219 70 79 0.0 0.0 0.03 0.05 0.03 96 1015.7
20260903053020 70 11 0.0 0.0 0.03 0.05 0.03 96 1015.9
20260903053013 70 11 0.0 0.0 0.03 0.05 0.03 96 1015.7
20260903052913 70 12 0.0 0.0 0.02 0.04 0.03 96 1015.8
20260903052811 70 35 0.0 0.0 0.02 0.04 0.02 96 1015.8
20260903052711 70 35 0.0 0.0 0.02 0.04 0.02 96 1015.9
20260903052623 70 37 0.0 0.0 0.01 0.03 0.02 96 1015.9
20260903052611 70 96 0.0 0.0 0.01 0.03 0.02 96 1015.9
20260903052520 70 22 0.0 0.0 0.01 0.03 0.01 96 1016.0
20260903052510 70 22 0.0 0.0 0.01 0.03 0.01 96 1015.9
20260903052410 70 355 0.0 0.0 0.01 0.03 0.01 96 1015.9
20260903052309 70 67 0.0 0.0 0.01 0.03 0.01 96 1016.0
20260903052208 70 102 0.0 0.0 0.01 0.03 0.01 96 1016.1
20260903052107 70 102 0.0 0.0 0.01 0.03 0.01 96 1016.1
20260903052021 70 102 0.0 0.0 0.00 0.02 0.00 96 1016.1
20260903052016 70 102 0.0 0.0 0.01 0.03 0.01 96 1016.1
20260903051807 70 102 0.0 0.0 0.00 0.02 0.00 96 1016.0
20260903051707 70 102 0.0 0.0 0.00 0.02 0.00 96 1016.0
20260903051606 70 102 0.0 0.0 0.00 0.02 0.00 96 1016.0
20260903051520 70 102 0.0 0.0 0.00 0.02 0.00 96 1016.1
20260903051506 70 102 0.0 0.0 0.00 0.02 0.00 96 1016.0
20260903051405 70 102 0.0 0.0 0.00 0.02 0.00 95 1016.0
20260903051305 70 102 0.0 0.0 0.00 0.02 0.00 95 1016.0
20260903051223 70 102 0.0 0.0 0.00 0.02 0.00 95 1015.9
20260903051219 70 102 0.0 0.0 0.00 0.02 0.00 95 1016.0
20260903051210 70 102 0.0 0.0 0.00 0.02 0.00 95 1016.0
20260903051020 70 102 0.0 0.0 0.00 0.02 0.00 95 1016.1
20260903051004 70 102 0.0 0.0 0.00 0.02 0.00 95 1016.0
20260903050903 70 102 0.0 0.0 0.00 0.02 0.00 95 1015.9
20260903050802 70 102 0.0 0.0 0.00 0.02 0.00 95 1015.9
20260903050702 70 102 0.0 0.0 0.00 0.02 0.00 95 1015.9
20260903050620 70 102 0.0 0.0 0.00 0.02 0.00 95 1015.9
20260903050601 70 102 0.0 0.0 0.00 0.02 0.00 95 1015.9
20260903050520 70 102 0.0 0.0 0.00 0.02 0.00 95 1015.9
20260903050513 70 102 0.0 0.0 0.00 0.02 0.00 96 1015.8
20260903050509 70 102 0.0 0.0 0.00 0.02 0.00 96 1015.8
20260903050300 70 102 0.0 0.0 0.00 0.02 0.00 96 1015.8
20260903050159 70 102 0.0 0.0 0.00 0.02 0.00 96 1015.7
20260903050118 70 102 0.0 0.0 0.00 0.02 0.00 96 1015.7
20260903050100 70 102 0.0 0.0 0.00 0.02 0.00 96 1015.8
20260903050020 70 102 0.0 0.0 0.00 0.02 0.00 95 1015.9
20260903045958 70 102 0.0 0.0 0.00 0.02 0.00 95 1015.8
20260903045924 70 102 0.0 0.0 0.00 0.02 0.00 95 1015.9
20260903045859 70 102 0.0 0.0 0.00 0.02 0.00 95 1015.8
20260903045826 70 102 0.0 0.0 0.00 0.02 0.00 95 1015.9
20260903045820 70 102 0.0 0.0 0.00 0.02 0.00 95 1015.9
20260903045811 70 102 0.0 0.0 0.00 0.02 0.00 95 1015.9
20260903045520 70 102 0.0 0.0 0.00 0.02 0.00 96 1016.0
20260903045455 70 102 0.0 0.0 0.00 0.02 0.00 96 1015.9
20260903045355 70 102 0.0 0.0 0.00 0.02 0.00 96 1015.9
20260903045256 70 102 0.0 0.0 0.00 0.02 0.00 96 1015.9
20260903045154 70 102 0.0 0.0 0.00 0.02 0.00 95 1015.8
20260903045117 70 102 0.0 0.0 0.00 0.02 0.00 96 1015.8
20260903045054 70 102 0.0 0.0 0.00 0.02 0.00 96 1015.7
20260903045020 70 102 0.0 0.0 0.00 0.02 0.00 95 1015.8
20260903045012 70 102 0.0 0.0 0.00 0.02 0.00 95 1015.7
20260903045008 70 102 0.0 0.0 0.00 0.02 0.00 95 1015.7
20260903044752 70 102 0.0 0.0 0.00 0.02 0.00 95 1015.7
20260903044723 70 102 0.0 0.0 0.00 0.02 0.00 95 1015.7
20260903044719 70 102 0.0 0.0 0.00 0.02 0.00 96 1015.7
20260903044705 70 102 0.0 0.0 0.00 0.02 0.00 95 1015.7
20260903044520 70 102 0.0 0.0 0.00 0.02 0.00 96 1015.8
20260903044349 70 102 0.0 0.0 0.00 0.02 0.00 96 1015.7
20260903044249 70 102 0.0 0.0 0.00 0.02 0.00 96 1015.6
20260903044148 70 102 0.0 0.0 0.00 0.02 0.00 96 1015.6
20260903044117 70 102 0.0 0.0 0.00 0.02 0.00 96 1015.6
20260903044100 70 102 0.0 0.0 0.00 0.02 0.00 95 1015.5
20260903044056 70 102 0.0 0.0 0.00 0.02 0.00 95 1015.5
20260903044020 70 102 0.0 0.0 0.00 0.02 0.00 95 1015.6
20260903043847 70 102 0.0 0.0 0.00 0.02 0.00 95 1015.5
20260903043835 70 102 0.0 0.0 0.00 0.02 0.00 95 1015.3
20260903043746 70 102 0.0 0.0 0.00 0.02 0.00 95 1015.4
20260903043722 70 102 0.0 0.0 0.00 0.02 0.00 95 1015.3
20260903043545 70 102 0.0 0.0 0.00 0.02 0.00 95 1015.3
20260903043520 70 102 0.0 0.0 0.00 0.02 0.00 95 1015.3
20260903043444 70 102 0.0 0.0 0.00 0.02 0.00 95 1015.2
20260903043344 70 102 0.0 0.0 0.00 0.02 0.00 95 1015.2
20260903043244 70 102 0.0 0.0 0.00 0.02 0.00 95 1015.3
20260903043114 70 102 0.0 0.0 0.00 0.02 0.00 95 1015.2
20260903043043 70 102 0.0 0.0 0.00 0.02 0.00 95 1015.2
20260903043020 70 102 0.0 0.0 0.00 0.02 0.00 95 1015.4
20260903043008 70 102 0.0 0.0 0.00 0.02 0.00 95 1015.3
20260903042855 70 117 0.0 0.0 0.00 0.02 0.00 95 1015.3
20260903042850 70 102 0.0 0.0 0.00 0.02 0.00 95 1015.3
20260903042720 70 109 0.0 0.0 0.00 0.02 0.00 95 1015.3
20260903042540 70 104 0.0 0.0 0.00 0.02 0.00 95 1015.4
20260903042520 70 104 0.0 0.0 0.00 0.02 0.00 95 1015.5
20260903042439 70 104 0.0 0.0 0.00 0.02 0.00 95 1015.4
20260903042339 70 104 0.0 0.0 0.00 0.02 0.00 95 1015.5
20260903042238 70 104 0.0 0.0 0.00 0.02 0.00 95 1015.6
20260903042111 70 104 0.0 0.0 0.00 0.02 0.00 95 1015.6
20260903042104 70 104 0.0 0.0 0.00 0.02 0.00 95 1015.5
20260903042058 70 104 0.0 0.0 0.00 0.02 0.00 95 1015.5
20260903042054 70 104 0.0 0.0 0.00 0.02 0.00 95 1015.6
20260903042020 70 104 0.0 0.0 0.00 0.02 0.00 95 1015.6
20260903041735 70 104 0.0 0.0 0.00 0.02 0.00 95 1015.5
20260903041611 70 104 0.0 0.0 0.00 0.02 0.00 95 1015.5
20260903041535 70 104 0.0 0.0 0.00 0.02 0.00 95 1015.5
20260903041520 70 104 0.0 0.0 0.00 0.02 0.00 95 1015.6
20260903041434 70 104 0.0 0.0 0.00 0.02 0.00 95 1015.5
20260903041334 70 104 0.0 0.0 0.00 0.02 0.00 95 1015.4
20260903041234 70 104 0.0 0.0 0.00 0.02 0.00 95 1015.5
20260903041152 70 104 0.0 0.0 0.00 0.02 0.00 95 1015.5
20260903041041 70 104 0.0 0.0 0.00 0.02 0.00 95 1015.4
20260903041020 70 104 0.0 0.0 0.00 0.02 0.00 95 1015.5
20260903040831 70 104 0.0 0.0 0.00 0.02 0.00 95 1015.4
20260903040730 70 104 0.0 0.0 0.00 0.02 0.00 95 1015.4
20260903040630 70 104 0.0 0.0 0.00 0.02 0.00 95 1015.5
20260903040611 70 103 0.0 0.0 0.00 0.02 0.00 95 1015.5
20260903040550 70 84 0.0 0.0 0.00 0.02 0.00 95 1015.6
20260903040529 70 91 0.0 0.0 0.00 0.02 0.00 95 1015.5
20260903040429 70 84 0.0 0.0 0.00 0.02 0.00 95 1015.5
20260903040328 70 84 0.0 0.0 0.00 0.02 0.00 95 1015.5
20260903040228 70 84 0.0 0.0 0.00 0.02 0.00 95 1015.6
20260903040111 70 84 0.0 0.0 0.00 0.02 0.00 95 1015.6
20260903040027 70 83 0.0 0.0 0.00 0.02 0.00 95 1015.6
20260903040020 70 83 0.0 0.0 0.00 0.02 0.00 95 1015.6
20260903035927 70 83 0.0 0.0 0.00 0.02 0.02 95 1015.5
20260903035824 70 83 0.0 0.0 0.00 0.02 0.02 95 1015.6
20260903035724 70 83 0.0 0.0 0.00 0.02 0.02 95 1015.5
20260903035610 70 84 0.0 0.0 0.00 0.02 0.02 95 1015.5
20260903035522 70 84 0.0 0.0 0.00 0.02 0.02 95 1015.7
20260903035520 70 84 0.0 0.0 0.00 0.02 0.02 95 1015.9
20260903035422 70 84 0.0 0.0 0.00 0.02 0.02 95 1015.8
20260903035354 70 84 0.0 0.0 0.00 0.02 0.02 95 1015.9
20260903035322 70 84 0.0 0.0 0.00 0.02 0.02 95 1015.8
20260903035249 70 84 0.0 0.0 0.00 0.02 0.02 95 1016.0
20260903035244 70 84 0.0 0.0 0.00 0.02 0.02 95 1015.9
20260903035235 70 84 0.0 0.0 0.00 0.02 0.02 95 1015.9
20260903035020 70 84 0.0 0.0 0.00 0.02 0.02 95 1016.1
20260903034920 70 84 0.0 0.0 0.00 0.02 0.02 95 1016.0
20260903034820 70 84 0.0 0.0 0.00 0.02 0.02 95 1016.0
20260903034719 70 84 0.0 0.0 0.00 0.02 0.02 95 1016.1
20260903034609 70 84 0.0 0.0 0.00 0.02 0.02 95 1016.0
20260903034541 70 84 0.0 0.0 0.00 0.02 0.02 95 1016.0
20260903034520 70 84 0.0 0.0 0.00 0.02 0.02 95 1016.2
20260903034428 70 84 0.0 0.0 0.00 0.02 0.02 95 1016.1
20260903034217 70 84 0.0 0.0 0.00 0.02 0.02 95 1016.1
20260903034135 70 84 0.0 0.0 0.00 0.02 0.02 95 1016.1
20260903034123 70 84 0.0 0.0 0.00 0.02 0.02 95 1016.0
20260903034020 70 84 0.0 0.0 0.00 0.02 0.02 95 1016.1
20260903033916 70 84 0.0 0.0 0.00 0.02 0.02 95 1016.0
20260903033815 70 84 0.0 0.0 0.00 0.02 0.02 95 1016.0
20260903033715 70 84 0.0 0.0 0.00 0.02 0.02 95 1015.9
20260903033607 70 84 0.0 0.0 0.00 0.02 0.02 95 1016.0
20260903033520 70 84 0.0 0.0 0.00 0.02 0.02 95 1016.1
20260903033514 70 84 0.0 0.0 0.00 0.02 0.02 95 1016.0
20260903033413 70 84 0.0 0.0 0.00 0.02 0.02 95 1016.0
20260903033313 70 84 0.0 0.0 0.00 0.02 0.02 95 1016.0
20260903033212 70 84 0.0 0.0 0.00 0.02 0.02 95 1015.9
20260903033108 70 84 0.0 0.0 0.00 0.02 0.02 95 1015.9
20260903033020 70 72 0.0 0.0 0.00 0.02 0.02 95 1015.9
20260903033011 70 72 0.0 0.0 0.00 0.02 0.02 95 1015.9
20260903032910 70 72 0.0 0.0 0.00 0.02 0.02 95 1015.8
20260903032810 70 72 0.0 0.0 0.00 0.02 0.02 95 1015.8
20260903032709 70 69 0.0 0.0 0.00 0.02 0.02 95 1015.9
20260903032610 70 70 0.0 0.0 0.00 0.02 0.02 95 1015.8
20260903032520 70 65 0.0 0.0 0.00 0.02 0.02 95 1016.0
20260903032508 70 65 0.0 0.0 0.00 0.02 0.02 95 1015.9
20260903032420 70 112 0.0 0.0 0.00 0.02 0.02 95 1015.8
20260903032416 70 88 0.0 0.0 0.00 0.02 0.02 95 1015.9
20260903032206 70 112 0.0 0.0 0.00 0.02 0.02 95 1015.7
20260903032106 70 112 0.0 0.0 0.00 0.02 0.02 95 1015.7
20260903032020 70 112 0.0 0.0 0.00 0.02 0.02 95 1015.8
20260903032005 70 112 0.0 0.0 0.00 0.02 0.02 95 1015.7
20260903031918 70 112 0.0 0.0 0.00 0.02 0.02 95 1015.7
20260903031914 70 112 0.0 0.0 0.00 0.02 0.02 95 1015.6
20260903031704 70 40 0.0 0.0 0.00 0.02 0.02 95 1015.7
20260903031604 70 40 0.0 0.0 0.00 0.02 0.02 95 1015.7
20260903031530 70 40 0.0 0.0 0.00 0.02 0.02 95 1015.6
20260903031525 70 40 0.0 0.0 0.00 0.02 0.02 95 1015.6
20260903031520 70 40 0.0 0.0 0.00 0.02 0.02 95 1015.8
20260903031202 70 40 0.0 0.0 0.00 0.02 0.02 95 1015.6
20260903031107 70 40 0.0 0.0 0.00 0.02 0.02 95 1015.5
20260903031101 70 40 0.0 0.0 0.00 0.02 0.02 95 1015.5
20260903031021 70 69 0.0 0.0 0.00 0.02 0.02 95 1015.6
20260903031001 70 78 0.0 0.0 0.00 0.02 0.02 95 1015.5
20260903030913 70 119 0.0 0.0 0.00 0.02 0.02 95 1015.5
20260903030909 70 119 0.0 0.0 0.00 0.02 0.02 95 1015.5
20260903030700 70 119 0.0 0.0 0.00 0.02 0.02 95 1015.5
20260903030605 70 94 0.0 0.0 0.00 0.02 0.02 95 1015.4
20260903030559 70 94 0.0 0.0 0.00 0.02 0.02 95 1015.4
20260903030520 70 94 0.0 0.0 0.00 0.02 0.02 95 1015.5
20260903030511 70 107 0.0 0.0 0.00 0.02 0.02 95 1015.4
20260903030507 70 94 0.0 0.0 0.00 0.02 0.02 95 1015.4
20260903030256 70 107 0.0 0.0 0.00 0.02 0.02 95 1015.4
20260903030156 70 107 0.0 0.0 0.00 0.02 0.02 95 1015.4
20260903030105 70 107 0.0 0.0 0.00 0.02 0.02 95 1015.4
20260903030055 70 107 0.0 0.0 0.00 0.02 0.02 95 1015.4
20260903030020 70 96 0.0 0.0 0.00 0.02 0.02 95 1015.5
20260903025955 70 96 0.0 0.0 0.00 0.02 0.02 95 1015.4
20260903025853 70 137 0.0 0.0 0.00 0.02 0.02 95 1015.4
20260903025752 70 126 0.0 0.0 0.00 0.02 0.02 95 1015.4
20260903025651 70 141 0.0 0.0 0.00 0.02 0.02 95 1015.4
20260903025604 70 141 0.0 0.0 0.00 0.02 0.02 95 1015.4
20260903025550 70 141 0.0 0.0 0.00 0.02 0.02 95 1015.4
20260903025520 70 141 0.0 0.0 0.00 0.02 0.02 95 1015.5
20260903025449 70 141 0.0 0.0 0.00 0.02 0.02 95 1015.4
20260903025347 70 141 0.0 0.0 0.00 0.02 0.02 95 1015.5
20260903025323 70 163 0.0 0.0 0.00 0.02 0.02 95 1015.6
20260903025247 70 141 0.0 0.0 0.00 0.02 0.02 95 1015.5
20260903025212 70 148 0.0 0.0 0.00 0.02 0.02 95 1015.5
20260903025046 70 163 0.0 0.0 0.00 0.02 0.02 95 1015.6
20260903025020 70 163 0.0 0.0 0.00 0.02 0.02 95 1015.6
20260903024958 70 163 0.0 0.0 0.00 0.02 0.02 95 1015.5
20260903024954 70 163 0.0 0.0 0.00 0.02 0.02 95 1015.5
20260903024823 70 96 0.0 0.0 0.00 0.02 0.02 95 1015.5
20260903024745 70 163 0.0 0.0 0.00 0.02 0.02 95 1015.6
20260903024710 70 163 0.0 0.0 0.00 0.02 0.02 95 1015.5
20260903024545 70 96 0.0 0.0 0.00 0.02 0.02 95 1015.5
20260903024521 70 96 0.0 0.0 0.00 0.02 0.02 95 1015.7
20260903024444 70 96 0.0 0.0 0.00 0.02 0.02 95 1015.6
20260903024356 70 106 0.0 0.0 0.00 0.02 0.02 95 1015.6
20260903024352 70 96 0.0 0.0 0.00 0.02 0.02 95 1015.5
20260903024141 70 106 0.0 0.0 0.00 0.02 0.02 95 1015.6
20260903024040 70 106 0.0 0.0 0.00 0.02 0.02 95 1015.6
20260903024020 70 106 0.0 0.0 0.00 0.02 0.02 95 1015.7
20260903023941 70 106 0.0 0.0 0.00 0.02 0.02 95 1015.6
20260903023928 70 106 0.0 0.0 0.00 0.02 0.02 95 1015.6
20260903023739 70 96 0.0 0.0 0.00 0.02 0.02 95 1015.6
20260903023710 70 96 0.0 0.0 0.00 0.02 0.02 95 1015.6
20260903023537 70 96 0.0 0.0 0.00 0.02 0.02 95 1015.7
20260903023520 70 96 0.0 0.0 0.00 0.02 0.02 95 1015.8
20260903023437 70 95 0.0 0.0 0.00 0.02 0.02 95 1015.7
20260903023336 70 95 0.0 0.0 0.00 0.02 0.02 95 1015.7
20260903023236 70 95 0.0 0.0 0.00 0.02 0.02 95 1015.7
20260903023136 70 95 0.0 0.0 0.00 0.02 0.02 95 1015.8
20260903023035 70 95 0.0 0.0 0.00 0.02 0.02 95 1015.8
20260903023020 70 95 0.0 0.0 0.00 0.02 0.02 95 1015.9
20260903022938 70 95 0.0 0.0 0.00 0.02 0.02 95 1015.8
20260903022929 70 104 0.0 0.0 0.00 0.02 0.02 95 1015.8
20260903022734 70 104 0.0 0.0 0.00 0.02 0.02 95 1015.9
20260903022708 70 104 0.0 0.0 0.00 0.02 0.02 95 1015.8
20260903022533 70 75 0.0 0.0 0.00 0.02 0.02 95 1015.8
20260903022520 70 62 0.0 0.0 0.00 0.02 0.02 95 1015.8
20260903022430 70 63 0.0 0.0 0.00 0.02 0.02 95 1015.7
20260903022330 70 98 0.0 0.0 0.00 0.02 0.02 95 1015.6
20260903022230 70 93 0.0 0.0 0.00 0.02 0.02 95 1015.6
20260903022129 70 98 0.0 0.0 0.00 0.02 0.02 95 1015.6
20260903022059 70 94 0.0 0.0 0.00 0.02 0.02 95 1015.6
20260903022030 70 86 0.0 0.0 0.00 0.02 0.02 95 1015.6
20260903022021 70 88 0.0 0.0 0.00 0.02 0.02 95 1015.7
20260903021944 70 75 0.0 0.0 0.00 0.02 0.02 95 1015.6
20260903021938 70 75 0.0 0.0 0.00 0.02 0.02 95 1015.6
20260903021818 70 84 0.0 0.0 0.00 0.02 0.02 95 1015.4
20260903021729 70 76 0.0 0.0 0.00 0.02 0.02 95 1015.6
20260903021705 70 111 0.0 0.0 0.00 0.02 0.02 95 1015.5
20260903021528 70 95 0.0 0.0 0.00 0.02 0.02 95 1015.4
20260903021520 70 95 0.0 0.0 0.00 0.02 0.02 95 1015.6
20260903021427 70 90 0.0 0.0 0.00 0.02 0.02 95 1015.5
20260903021327 70 94 0.0 0.0 0.00 0.02 0.02 95 1015.5
20260903021226 70 103 0.0 0.0 0.00 0.02 0.02 95 1015.7
20260903021140 70 103 0.0 0.0 0.00 0.02 0.02 95 1015.8
20260903021132 70 103 0.0 0.0 0.00 0.02 0.02 95 1015.9
20260903021020 70 103 0.0 0.0 0.00 0.02 0.02 95 1016.0
20260903020925 70 103 0.0 0.0 0.00 0.02 0.02 95 1015.9
20260903020825 70 103 0.0 0.0 0.00 0.02 0.02 95 1015.9
20260903020723 70 103 0.0 0.0 0.00 0.02 0.02 95 1015.8
20260903020621 70 103 0.0 0.0 0.00 0.02 0.02 95 1015.7
20260903020556 70 103 0.0 0.0 0.00 0.02 0.02 95 1015.6
20260903020521 70 114 0.0 0.0 0.00 0.02 0.02 95 1015.6
20260903020420 70 115 0.0 0.0 0.00 0.02 0.02 95 1015.6
20260903020320 70 48 0.0 0.0 0.00 0.02 0.02 95 1015.5
20260903020219 70 120 0.0 0.0 0.00 0.02 0.02 95 1015.5
20260903020119 70 101 0.0 0.0 0.00 0.02 0.02 95 1015.4
20260903020056 70 120 0.0 0.0 0.00 0.02 0.02 95 1015.4
20260903020020 70 115 0.0 0.0 0.00 0.02 0.02 95 1015.5
20260903015916 70 103 0.0 0.0 0.00 0.02 0.02 95 1015.4
20260903015830 70 103 0.0 0.0 0.00 0.02 0.02 95 1015.4
20260903015825 70 103 0.0 0.0 0.00 0.02 0.02 95 1015.4
20260903015615 70 103 0.0 0.0 0.00 0.02 0.02 95 1015.4
20260903015555 70 103 0.0 0.0 0.00 0.02 0.02 95 1015.4
20260903015520 70 103 0.0 0.0 0.00 0.02 0.02 94 1015.5
20260903015514 70 103 0.0 0.0 0.00 0.02 0.02 94 1015.4
20260903015412 70 103 0.0 0.0 0.00 0.02 0.02 94 1015.4
20260903015312 70 103 0.0 0.0 0.00 0.02 0.02 95 1015.4
20260903015223 70 103 0.0 0.0 0.00 0.02 0.02 94 1015.4
20260903015219 70 103 0.0 0.0 0.00 0.02 0.02 94 1015.4
20260903015053 70 103 0.0 0.0 0.00 0.02 0.02 95 1015.4
20260903015020 70 103 0.0 0.0 0.00 0.02 0.02 94 1015.5
20260903015009 70 103 0.0 0.0 0.00 0.02 0.02 94 1015.4
20260903014909 70 103 0.0 0.0 0.00 0.02 0.02 95 1015.4
20260903014821 70 99 0.0 0.0 0.00 0.02 0.02 95 1015.2
20260903014817 70 113 0.0 0.0 0.00 0.02 0.02 94 1015.3
20260903014608 70 207 0.0 0.0 0.00 0.02 0.02 94 1015.1
20260903014555 70 207 0.0 0.0 0.00 0.02 0.02 95 1015.1
20260903014520 70 82 0.0 0.0 0.00 0.02 0.02 94 1015.3
20260903014507 70 82 0.0 0.0 0.00 0.02 0.02 94 1015.2
20260903014419 70 108 0.0 0.0 0.00 0.02 0.02 95 1015.2
20260903014415 70 108 0.0 0.0 0.00 0.02 0.02 95 1015.2
20260903014207 70 108 0.0 0.0 0.00 0.02 0.02 95 1015.2
20260903014106 70 108 0.0 0.0 0.00 0.02 0.02 95 1015.3
20260903014053 70 108 0.0 0.0 0.00 0.02 0.02 95 1015.3
20260903014020 70 114 0.0 0.0 0.00 0.02 0.02 95 1015.4
20260903014006 70 110 0.0 0.0 0.00 0.02 0.02 95 1015.3
20260903013905 70 100 0.0 0.0 0.00 0.02 0.02 95 1015.3
20260903013805 70 105 0.0 0.0 0.00 0.02 0.02 95 1015.4
20260903013718 70 134 0.0 0.0 0.00 0.02 0.02 95 1015.4
20260903013712 70 103 0.0 0.0 0.00 0.02 0.02 95 1015.4
20260903013553 70 134 0.0 0.0 0.00 0.02 0.02 95 1015.4
20260903013520 70 104 0.0 0.0 0.00 0.02 0.02 95 1015.5
20260903013504 70 104 0.0 0.0 0.00 0.02 0.02 95 1015.4
20260903013402 70 69 0.0 0.0 0.00 0.02 0.02 95 1015.4
20260903013301 70 69 0.0 0.0 0.00 0.02 0.02 95 1015.3
20260903013201 70 120 0.0 0.0 0.00 0.02 0.02 95 1015.3
20260903013101 70 121 0.0 0.0 0.00 0.02 0.02 95 1015.3
20260903013052 70 114 0.0 0.0 0.00 0.02 0.02 95 1015.3
20260903013020 70 51 0.0 0.0 0.00 0.02 0.02 95 1015.3
20260903013000 70 51 0.0 0.0 0.00 0.02 0.02 95 1015.2
20260903012900 70 110 0.0 0.0 0.00 0.02 0.02 95 1015.2
20260903012759 70 123 0.0 0.0 0.00 0.02 0.02 95 1015.3
20260903012658 70 109 0.0 0.0 0.00 0.02 0.02 94 1015.3
20260903012551 70 104 0.0 0.0 0.00 0.02 0.02 94 1015.3
20260903012540 70 112 0.0 0.0 0.00 0.02 0.02 94 1015.4
20260903012535 70 107 0.0 0.0 0.00 0.02 0.02 94 1015.4
20260903012530 70 110 0.0 0.0 0.00 0.02 0.02 94 1015.3
20260903012525 70 109 0.0 0.0 0.00 0.02 0.02 94 1015.4
20260903012520 70 108 0.0 0.0 0.00 0.02 0.02 94 1015.5
20260903012049 70 103 0.0 0.0 0.00 0.02 0.02 94 1015.3
20260903012020 70 103 0.0 0.0 0.00 0.02 0.02 94 1015.5
20260903011957 70 103 0.0 0.0 0.00 0.02 0.02 94 1015.4
20260903011856 70 102 0.0 0.0 0.00 0.02 0.02 94 1015.4
20260903011756 70 103 0.0 0.0 0.00 0.02 0.02 94 1015.4
20260903011656 70 99 0.0 0.0 0.00 0.02 0.02 94 1015.4
20260903011615 70 107 0.0 0.0 0.00 0.02 0.02 94 1015.5
20260903011603 70 100 0.0 0.0 0.00 0.02 0.02 94 1015.5
20260903011535 70 107 0.0 0.0 0.00 0.02 0.02 94 1015.6
20260903011355 70 105 0.0 0.0 0.00 0.02 0.02 94 1015.5
20260903011317 70 103 0.0 0.0 0.00 0.02 0.02 94 1015.5
20260903011312 70 103 0.0 0.0 0.00 0.02 0.02 94 1015.6
20260903011303 70 102 0.0 0.0 0.00 0.02 0.02 94 1015.5
20260903011020 70 103 0.0 0.0 0.00 0.02 0.02 94 1015.7
20260903010952 70 103 0.0 0.0 0.00 0.02 0.02 94 1015.6
20260903010851 70 76 0.0 0.0 0.00 0.02 0.02 94 1015.6
20260903010750 70 76 0.0 0.0 0.00 0.02 0.02 94 1015.6
20260903010707 70 108 0.0 0.0 0.00 0.02 0.02 94 1015.7
20260903010701 70 76 0.0 0.0 0.00 0.02 0.02 94 1015.7
20260903010545 70 108 0.0 0.0 0.00 0.02 0.02 94 1015.7
20260903010520 70 124 0.0 0.0 0.00 0.02 0.02 94 1015.9
20260903010449 70 124 0.0 0.0 0.00 0.02 0.02 94 1015.8
20260903010349 70 124 0.0 0.0 0.00 0.02 0.02 94 1015.9
20260903010249 70 124 0.0 0.0 0.00 0.02 0.02 94 1015.8
20260903010147 70 124 0.0 0.0 0.00 0.02 0.02 94 1015.8
20260903010107 70 110 0.0 0.0 0.00 0.02 0.02 94 1015.9
20260903010054 70 124 0.0 0.0 0.00 0.02 0.02 94 1015.8
20260903010035 70 128 0.0 0.0 0.00 0.02 0.02 94 1016.0
20260903005845 70 92 0.0 0.0 0.00 0.02 0.02 94 1015.8
20260903005745 70 140 0.0 0.0 0.00 0.02 0.02 94 1015.8
20260903005645 70 64 0.0 0.0 0.00 0.02 0.02 94 1015.9
20260903005546 70 64 0.0 0.0 0.00 0.02 0.02 94 1015.9
20260903005521 70 64 0.0 0.0 0.00 0.02 0.02 94 1015.9
20260903005444 70 60 0.0 0.0 0.00 0.02 0.02 94 1015.8
20260903005342 70 64 0.0 0.0 0.00 0.02 0.02 94 1015.7
20260903005240 70 106 0.0 0.0 0.00 0.02 0.02 94 1015.7
20260903005140 70 82 0.0 0.0 0.00 0.02 0.02 94 1015.7
20260903005050 70 78 0.0 0.0 0.00 0.02 0.02 94 1015.8
20260903005040 70 78 0.0 0.0 0.00 0.02 0.02 94 1015.7
20260903004939 71 78 0.0 0.0 0.00 0.02 0.02 94 1015.7
20260903004839 71 78 0.0 0.0 0.00 0.02 0.02 94 1015.7
20260903004738 71 78 0.0 0.0 0.00 0.02 0.02 94 1015.7
20260903004638 71 80 0.0 0.0 0.00 0.02 0.02 94 1015.8
20260903004557 71 80 0.0 0.0 0.00 0.02 0.02 94 1015.8
20260903004546 71 80 0.0 0.0 0.00 0.02 0.02 94 1015.8
20260903004520 71 80 0.0 0.0 0.00 0.02 0.02 94 1015.9
20260903004404 71 79 0.0 0.0 0.00 0.02 0.02 94 1015.9
20260903004359 71 90 0.0 0.0 0.00 0.02 0.02 94 1015.8
20260903004354 71 79 0.0 0.0 0.00 0.02 0.02 94 1015.9
20260903004035 71 90 0.0 0.0 0.00 0.02 0.02 94 1015.8
20260903004020 71 90 0.0 0.0 0.00 0.02 0.02 94 1015.8
20260903003935 71 90 0.0 0.0 0.00 0.02 0.02 94 1015.7
20260903003834 71 90 0.0 0.0 0.00 0.02 0.02 94 1015.7
20260903003733 71 90 0.0 0.0 0.00 0.02 0.02 94 1015.7
20260903003632 71 90 0.0 0.0 0.00 0.02 0.02 94 1015.7
20260903003535 71 80 0.0 0.0 0.00 0.02 0.02 94 1015.9
20260903003532 71 90 0.0 0.0 0.00 0.02 0.02 94 1015.8
20260903003432 71 80 0.0 0.0 0.00 0.02 0.02 94 1015.8
20260903003331 71 80 0.0 0.0 0.00 0.02 0.02 94 1015.8
20260903003232 71 80 0.0 0.0 0.00 0.02 0.02 94 1015.7
20260903003132 71 80 0.0 0.0 0.00 0.02 0.02 94 1015.7
20260903003031 71 87 0.0 0.0 0.00 0.02 0.02 94 1015.6
20260903003020 71 88 0.0 0.0 0.00 0.02 0.02 94 1015.7
20260903002932 71 89 0.0 0.0 0.00 0.02 0.02 94 1015.6
20260903002830 71 95 0.0 0.0 0.00 0.02 0.02 94 1015.5
20260903002818 71 69 0.0 0.0 0.00 0.03 0.02 94 1015.4
20260903002729 71 80 0.0 0.0 0.00 0.02 0.02 94 1015.5
20260903002706 71 84 0.0 0.0 0.00 0.03 0.02 94 1015.5
20260903002552 71 69 0.0 0.0 0.00 0.03 0.02 94 1015.4
20260903002520 71 70 0.0 0.0 0.00 0.03 0.02 94 1015.6
20260903002438 71 70 0.0 0.0 0.00 0.03 0.02 94 1015.5
20260903002242 71 76 0.0 0.0 0.00 0.08 0.02 94 1015.5
20260903002236 71 67 0.0 0.0 0.00 0.06 0.02 94 1015.5
20260903002027 71 76 0.0 0.0 0.00 0.10 0.02 94 1015.5
20260903002020 71 76 0.0 0.0 0.00 0.09 0.02 94 1015.5
20260903001926 71 76 0.0 0.0 0.00 0.12 0.02 94 1015.4
20260903001826 71 76 0.0 0.0 0.00 0.14 0.02 94 1015.4
20260903001726 71 94 0.0 0.0 0.00 0.16 0.02 94 1015.4
20260903001623 71 96 0.0 0.0 0.00 0.17 0.02 94 1015.4
20260903001535 71 96 0.0 0.0 0.00 0.17 0.02 94 1015.4
20260903001524 71 96 0.0 0.0 0.00 0.18 0.02 94 1015.4
20260903001520 71 96 0.0 0.0 0.00 0.17 0.02 94 1015.4
20260903001423 71 96 0.0 0.0 0.00 0.20 0.02 94 1015.3
20260903001322 71 96 0.0 0.0 0.00 0.20 0.02 94 1015.4
20260903001222 71 96 0.0 0.0 0.00 0.21 0.02 94 1015.3
20260903001119 71 96 0.0 0.0 0.00 0.22 0.02 94 1015.3
20260903001020 71 96 0.0 0.0 0.00 0.22 0.02 94 1015.4
20260903000919 71 84 0.0 0.0 0.00 0.24 0.02 94 1015.3
20260903000817 71 80 0.0 0.0 0.00 0.25 0.02 94 1015.3
20260903000717 71 80 0.0 0.0 0.00 0.26 0.02 94 1015.3
20260903000617 71 76 0.0 0.0 0.00 0.26 0.02 94 1015.4
20260903000520 71 76 0.0 0.0 0.00 0.26 0.02 94 1015.4
20260903000516 71 76 0.0 0.0 0.00 0.26 0.02 94 1015.3
20260903000417 71 76 0.0 0.0 0.00 0.27 0.02 94 1015.3
20260903000317 71 73 0.0 0.0 0.00 0.27 0.02 94 1015.3
20260903000215 71 90 0.0 0.0 0.00 0.27 0.02 94 1015.3
20260903000115 71 91 0.0 0.0 0.00 0.28 0.02 94 1015.3
20260903000035 71 91 0.0 0.0 0.00 0.28 0.02 94 1015.4
20260903000023 71 91 0.0 0.0 0.00 0.28 0.02 94 1015.3
20260902235843 71 91 0.0 0.0 0.00 0.28 0.02 94 1015.2
20260902235739 71 91 0.0 0.0 0.00 0.28 0.02 94 1015.2
20260902235733 71 91 0.0 0.0 0.00 0.28 0.02 94 1015.3
20260902235724 71 91 0.0 0.0 0.00 0.28 0.02 94 1015.3
20260902235550 71 91 0.0 0.0 0.00 0.28 0.02 94 1015.3
20260902235409 71 91 0.0 0.0 0.00 0.28 0.02 94 1015.2
20260902235309 71 92 0.0 0.0 0.00 0.28 0.02 94 1015.2
20260902235209 71 91 0.0 0.0 0.00 0.28 0.02 94 1015.2
20260902235106 71 91 0.0 0.0 0.00 0.28 0.02 94 1015.2
20260902235035 71 95 0.0 0.0 0.00 0.28 0.02 94 1015.2
20260902235027 71 95 0.0 0.0 0.00 0.28 0.02 94 1015.2
20260902235006 71 95 0.0 0.0 0.00 0.28 0.02 94 1015.1
20260902234905 71 95 0.0 0.0 0.00 0.28 0.02 94 1015.1
20260902234805 71 94 0.0 0.0 0.00 0.28 0.02 94 1015.0
20260902234705 71 103 0.0 0.0 0.00 0.28 0.02 94 1015.0
20260902234604 71 104 0.0 0.0 0.00 0.28 0.02 94 1015.0
20260902234535 71 104 0.0 0.0 0.00 0.28 0.02 94 1015.1
20260902234505 71 104 0.0 0.0 0.00 0.28 0.02 94 1015.0
20260902234404 71 104 0.0 0.0 0.00 0.28 0.02 94 1015.0
20260902234303 71 104 0.0 0.0 0.00 0.28 0.02 94 1015.0
20260902234203 71 104 0.0 0.0 0.00 0.28 0.02 94 1015.1
20260902234103 71 104 0.0 0.0 0.00 0.28 0.02 94 1015.1
20260902234035 71 104 0.0 0.0 0.00 0.28 0.02 94 1015.2
20260902234026 71 104 0.0 0.0 0.00 0.28 0.02 94 1015.1
20260902234003 71 104 0.0 0.0 0.00 0.28 0.02 94 1015.1
20260902233929 71 104 0.0 0.0 0.00 0.28 0.02 94 1015.2
20260902233925 71 104 0.0 0.0 0.00 0.28 0.02 94 1015.2
20260902233920 71 104 0.0 0.0 0.00 0.28 0.02 94 1015.2
20260902233601 71 104 0.0 0.0 0.00 0.28 0.02 94 1015.2
20260902233535 71 104 0.0 0.0 0.00 0.28 0.02 94 1015.3
20260902233524 71 104 0.0 0.0 0.00 0.28 0.02 94 1015.2
20260902233501 71 104 0.0 0.0 0.00 0.28 0.02 94 1015.2
20260902233406 71 104 0.0 0.0 0.00 0.28 0.02 94 1015.2
20260902233400 71 104 0.0 0.0 0.00 0.28 0.02 94 1015.2
20260902233311 71 104 0.0 0.0 0.00 0.28 0.02 94 1015.2
20260902233305 71 104 0.0 0.0 0.00 0.28 0.02 94 1015.3
20260902233256 71 104 0.0 0.0 0.00 0.28 0.02 94 1015.2
20260902233248 71 104 0.0 0.0 0.00 0.28 0.02 94 1015.2
20260902233020 71 104 0.0 0.0 0.00 0.28 0.02 94 1015.3
20260902232920 71 76 0.0 0.0 0.00 0.28 0.02 94 1015.2
20260902232915 71 104 0.0 0.0 0.00 0.28 0.02 94 1015.3
20260902232616 71 103 0.0 0.0 0.00 0.28 0.02 94 1015.3
20260902232611 71 102 0.0 0.0 0.00 0.28 0.02 94 1015.2
20260902232602 71 103 0.0 0.0 0.00 0.28 0.02 94 1015.2
20260902232521 71 103 0.0 0.0 0.00 0.28 0.02 94 1015.4
20260902232355 71 105 0.0 0.0 0.00 0.28 0.02 94 1015.3
20260902232255 71 105 0.0 0.0 0.00 0.28 0.02 94 1015.3
20260902232155 71 105 0.0 0.0 0.00 0.28 0.02 94 1015.3
20260902232054 71 104 0.0 0.0 0.00 0.28 0.02 94 1015.3
20260902232020 71 104 0.0 0.0 0.00 0.28 0.02 94 1015.3
20260902231954 71 104 0.0 0.0 0.00 0.28 0.02 94 1015.2
20260902231853 71 104 0.0 0.0 0.00 0.28 0.02 94 1015.3
20260902231753 71 115 0.0 0.0 0.00 0.28 0.02 94 1015.2
20260902231653 71 118 0.0 0.0 0.00 0.28 0.02 94 1015.2
20260902231552 71 118 0.0 0.0 0.00 0.28 0.02 94 1015.2
20260902231520 71 122 0.0 0.0 0.00 0.28 0.02 94 1015.4
20260902231518 71 118 0.0 0.0 0.00 0.28 0.02 94 1015.2
20260902231452 71 132 0.0 0.0 0.00 0.28 0.02 94 1015.3
20260902231351 71 132 0.0 0.0 0.00 0.28 0.02 94 1015.3
20260902231305 71 113 0.0 0.0 0.00 0.28 0.02 94 1015.3
20260902231300 71 132 0.0 0.0 0.00 0.28 0.02 94 1015.3
20260902231109 71 74 0.0 0.0 0.00 0.28 0.02 94 1015.3
20260902231104 71 110 0.0 0.0 0.00 0.28 0.02 94 1015.3
20260902231056 71 74 0.0 0.0 0.00 0.28 0.02 94 1015.3
20260902231035 71 74 0.0 0.0 0.00 0.28 0.02 94 1015.4
20260902230849 71 66 0.0 0.0 0.00 0.28 0.02 94 1015.3
20260902230803 71 80 0.0 0.0 0.00 0.28 0.02 94 1015.3
20260902230757 71 79 0.0 0.0 0.00 0.28 0.02 94 1015.3
20260902230548 71 80 0.0 0.0 0.00 0.28 0.02 94 1015.3
20260902230520 71 80 0.0 0.0 0.00 0.28 0.02 94 1015.4
20260902230517 71 80 0.0 0.0 0.00 0.28 0.02 94 1015.3
20260902230447 71 80 0.0 0.0 0.00 0.28 0.02 94 1015.3
20260902230347 71 79 0.0 0.0 0.00 0.28 0.02 95 1015.2
20260902230247 71 82 0.0 0.0 0.00 0.28 0.02 95 1015.3
20260902230146 71 83 0.0 0.0 0.00 0.28 0.02 95 1015.2
20260902230046 71 83 0.0 0.0 0.00 0.28 0.02 94 1015.2
20260902230021 71 83 0.0 0.0 0.00 0.28 0.02 95 1015.2
20260902230014 71 83 0.0 0.0 0.00 0.28 0.02 95 1015.2
20260902225946 71 83 0.0 0.0 0.00 0.28 0.02 95 1015.1
20260902225845 71 83 0.0 0.0 0.00 0.28 0.02 95 1015.2
20260902225747 71 83 0.0 0.0 0.00 0.28 0.02 95 1015.2
20260902225657 71 103 0.0 0.0 0.00 0.28 0.02 95 1015.3
20260902225653 71 82 0.0 0.0 0.00 0.28 0.02 95 1015.2
20260902225520 71 105 0.0 0.0 0.00 0.28 0.02 95 1015.4
20260902225517 71 105 0.0 0.0 0.00 0.28 0.02 95 1015.3
20260902225511 71 105 0.0 0.0 0.00 0.28 0.02 95 1015.3
20260902225506 71 96 0.0 0.0 0.00 0.28 0.02 95 1015.3
20260902225502 71 105 0.0 0.0 0.00 0.28 0.02 95 1015.3
20260902225211 71 96 0.0 0.0 0.00 0.28 0.02 95 1015.3
20260902225049 71 96 0.0 0.0 0.00 0.28 0.02 95 1015.3
20260902225020 71 96 0.0 0.0 0.00 0.28 0.02 95 1015.4
20260902224842 71 93 0.0 0.0 0.00 0.28 0.02 95 1015.3
20260902224807 71 158 0.0 0.0 0.00 0.28 0.02 95 1015.4
20260902224803 71 158 0.0 0.0 0.00 0.28 0.02 95 1015.3
20260902224759 71 158 0.0 0.0 0.00 0.28 0.02 95 1015.3
20260902224535 71 107 0.0 0.0 0.00 0.28 0.02 95 1015.4
20260902224511 71 107 0.0 0.0 0.00 0.28 0.02 95 1015.3
20260902224440 71 107 0.0 0.0 0.00 0.28 0.02 95 1015.3
20260902224340 71 103 0.0 0.0 0.00 0.28 0.02 95 1015.3
20260902224252 71 92 0.0 0.0 0.00 0.28 0.02 95 1015.3
20260902224248 71 113 0.0 0.0 0.00 0.28 0.02 95 1015.3
20260902224039 71 101 0.0 0.0 0.00 0.28 0.02 95 1015.3
20260902224020 71 95 0.0 0.0 0.00 0.28 0.02 95 1015.5
20260902224009 71 94 0.0 0.0 0.00 0.28 0.02 95 1015.3
20260902223938 71 119 0.0 0.0 0.00 0.28 0.02 95 1015.4
20260902223838 71 125 0.0 0.0 0.00 0.28 0.02 95 1015.4
20260902223749 71 125 0.0 0.0 0.00 0.28 0.02 95 1015.4
20260902223745 71 125 0.0 0.0 0.00 0.28 0.02 95 1015.4
20260902223520 71 107 0.0 0.0 0.00 0.28 0.02 95 1015.5
20260902223510 71 107 0.0 0.0 0.00 0.28 0.02 95 1015.4
20260902223435 71 107 0.0 0.0 0.00 0.28 0.02 95 1015.4
20260902223336 71 107 0.0 0.0 0.00 0.28 0.02 95 1015.4
20260902223235 71 107 0.0 0.0 0.00 0.28 0.02 95 1015.5
20260902223208 71 107 0.0 0.0 0.00 0.28 0.02 95 1015.6
20260902223204 71 107 0.0 0.0 0.00 0.28 0.02 95 1015.6
20260902223159 71 107 0.0 0.0 0.00 0.28 0.02 95 1015.5
20260902223042 71 107 0.0 0.0 0.00 0.28 0.02 95 1015.6
20260902223020 71 107 0.0 0.0 0.00 0.28 0.02 95 1015.7
20260902222835 71 107 0.0 0.0 0.00 0.28 0.02 95 1015.6
20260902222733 71 93 0.0 0.0 0.00 0.28 0.02 95 1015.6
20260902222633 71 115 0.0 0.0 0.00 0.28 0.02 95 1015.6
20260902222533 71 126 0.0 0.0 0.00 0.28 0.02 95 1015.6
20260902222520 71 109 0.0 0.0 0.00 0.28 0.02 95 1015.8
20260902222508 71 109 0.0 0.0 0.00 0.28 0.02 95 1015.6
20260902222458 71 71 0.0 0.0 0.00 0.28 0.02 95 1015.7
20260902222454 71 70 0.0 0.0 0.00 0.28 0.02 95 1015.6
20260902222449 71 82 0.0 0.0 0.00 0.28 0.02 95 1015.7
20260902222131 71 99 0.0 0.0 0.00 0.28 0.02 95 1015.6
20260902222049 71 67 0.0 0.0 0.00 0.28 0.02 95 1015.6
20260902222045 71 96 0.0 0.0 0.00 0.28 0.02 95 1015.6
20260902222037 71 90 0.0 0.0 0.00 0.28 0.02 95 1015.6
20260902222020 71 90 0.0 0.0 0.00 0.28 0.02 95 1015.7
20260902221830 71 83 0.0 0.0 0.00 0.28 0.02 95 1015.6
20260902221730 71 93 0.0 0.0 0.00 0.28 0.02 95 1015.6
20260902221654 71 101 0.0 0.0 0.00 0.28 0.02 94 1015.6
20260902221541 71 101 0.0 0.0 0.00 0.28 0.02 94 1015.5
20260902221533 71 101 0.0 0.0 0.00 0.28 0.02 94 1015.6
20260902221520 71 101 0.0 0.0 0.00 0.28 0.02 94 1015.7
20260902221326 71 86 0.0 0.0 0.00 0.28 0.02 95 1015.6
20260902221226 71 103 0.0 0.0 0.00 0.28 0.02 95 1015.6
20260902221124 71 77 0.0 0.0 0.00 0.28 0.02 95 1015.6
20260902221043 71 140 0.0 0.0 0.00 0.28 0.02 95 1015.7
20260902221039 71 94 0.0 0.0 0.00 0.28 0.02 95 1015.7
20260902221031 71 125 0.0 0.0 0.00 0.28 0.02 95 1015.7
20260902221021 71 125 0.0 0.0 0.00 0.28 0.02 95 1015.8
20260902220822 71 98 0.0 0.0 0.00 0.28 0.02 95 1015.7
20260902220722 71 71 0.0 0.0 0.00 0.28 0.02 95 1015.9
20260902220623 71 71 0.0 0.0 0.00 0.28 0.02 95 1015.9
20260902220541 71 71 0.0 0.0 0.00 0.28 0.02 94 1016.0
20260902220520 71 71 0.0 0.0 0.00 0.28 0.02 94 1016.1
20260902220430 71 71 0.0 0.0 0.00 0.28 0.02 94 1016.0
20260902220235 71 84 0.0 0.0 0.00 0.28 0.02 95 1016.0
20260902220231 71 96 0.0 0.0 0.00 0.28 0.02 94 1016.0
20260902220021 71 71 0.0 0.0 0.00 0.28 0.02 95 1016.0
20260902220007 71 115 0.0 0.0 0.00 0.28 0.02 95 1016.0
20260902215920 71 115 0.0 0.0 0.00 0.28 0.02 95 1016.0
20260902215818 71 115 0.0 0.0 0.00 0.28 0.02 95 1015.9
20260902215718 71 115 0.0 0.0 0.00 0.28 0.02 95 1016.0
20260902215617 71 115 0.0 0.0 0.00 0.28 0.02 95 1016.0
20260902215520 71 113 0.0 0.0 0.00 0.28 0.02 94 1016.1
20260902215506 71 113 0.0 0.0 0.00 0.28 0.02 94 1016.0
20260902215416 71 113 0.0 0.0 0.00 0.28 0.02 94 1016.0
20260902215314 71 113 0.0 0.0 0.00 0.28 0.02 94 1016.1
20260902215213 71 113 0.0 0.0 0.00 0.28 0.02 94 1016.1
20260902215112 71 113 0.0 0.0 0.00 0.28 0.02 94 1016.1
20260902215020 71 118 0.0 0.0 0.00 0.28 0.02 94 1016.2
20260902215006 71 118 0.0 0.0 0.00 0.28 0.02 94 1016.1
20260902214911 71 118 0.0 0.0 0.00 0.28 0.02 94 1016.1
20260902214810 71 118 0.0 0.0 0.00 0.28 0.02 94 1016.1
20260902214710 71 118 0.0 0.0 0.00 0.28 0.02 94 1016.1
20260902214609 71 118 0.0 0.0 0.00 0.28 0.02 94 1016.1
20260902214520 72 109 0.0 0.0 0.00 0.28 0.02 95 1016.1
20260902214509 71 109 0.0 0.0 0.00 0.28 0.02 95 1016.0
20260902214408 71 109 0.0 0.0 0.00 0.28 0.02 95 1016.0
20260902214307 72 81 0.0 0.0 0.00 0.28 0.02 95 1016.0
20260902214207 72 67 0.0 0.0 0.00 0.28 0.02 95 1016.0
20260902214107 72 67 0.0 0.0 0.00 0.28 0.02 95 1015.9
20260902214020 72 48 0.0 0.0 0.00 0.28 0.02 95 1016.1
20260902214008 72 48 0.0 0.0 0.00 0.28 0.02 95 1016.0
20260902213907 72 72 0.0 0.0 0.00 0.28 0.02 95 1015.9
20260902213823 72 58 0.0 0.0 0.00 0.28 0.02 95 1015.8
20260902213818 72 139 0.0 0.0 0.00 0.28 0.02 95 1015.9
20260902213814 72 59 0.0 0.0 0.00 0.28 0.02 95 1015.8
20260902213619 72 139 0.0 0.0 0.00 0.28 0.02 95 1015.9
20260902213520 72 139 0.0 0.0 0.00 0.28 0.02 95 1016.0
20260902213505 72 139 0.0 0.0 0.00 0.28 0.02 95 1015.9
20260902213404 71 148 0.0 0.0 0.00 0.28 0.02 95 1015.9
20260902213304 72 149 0.0 0.0 0.00 0.28 0.02 95 1015.9
20260902213235 72 149 0.0 0.0 0.00 0.28 0.02 95 1015.8
20260902213231 71 149 0.0 0.0 0.00 0.28 0.02 95 1015.8
20260902213225 72 148 0.0 0.0 0.00 0.28 0.02 95 1015.9
20260902213107 71 149 0.0 0.0 0.00 0.28 0.02 95 1015.8
20260902213020 72 148 0.0 0.0 0.00 0.28 0.02 95 1015.9
20260902212901 71 149 0.0 0.0 0.00 0.28 0.02 95 1015.7
20260902212800 71 149 0.0 0.0 0.00 0.28 0.02 95 1015.6
20260902212659 72 149 0.0 0.0 0.00 0.28 0.02 95 1015.5
20260902212558 71 132 0.0 0.0 0.00 0.28 0.02 95 1015.4
20260902212520 72 132 0.0 0.0 0.00 0.28 0.02 95 1015.5
20260902212504 72 133 0.0 0.0 0.00 0.28 0.02 95 1015.4
20260902212458 72 123 0.0 0.0 0.00 0.28 0.02 95 1015.4
20260902212358 72 103 0.0 0.0 0.00 0.28 0.02 95 1015.4
20260902212257 72 103 0.0 0.0 0.00 0.28 0.02 95 1015.5
20260902212156 72 103 0.0 0.0 0.00 0.28 0.02 95 1015.5
20260902212056 72 101 0.0 0.0 0.00 0.28 0.02 95 1015.5
20260902212020 72 101 0.0 0.0 0.00 0.28 0.02 95 1015.6
20260902212003 72 101 0.0 0.0 0.00 0.28 0.02 95 1015.5
20260902211955 72 101 0.0 0.0 0.00 0.28 0.02 95 1015.5
20260902211855 72 92 0.0 0.0 0.00 0.28 0.02 95 1015.5
20260902211755 72 117 0.0 0.0 0.00 0.28 0.02 95 1015.5
20260902211655 72 118 0.0 0.0 0.00 0.28 0.02 95 1015.5
20260902211555 72 98 0.0 0.0 0.00 0.28 0.02 95 1015.5
20260902211520 72 98 0.0 0.0 0.00 0.28 0.02 95 1015.5
20260902211503 72 98 0.0 0.0 0.00 0.28 0.02 95 1015.4
20260902211454 71 98 0.0 0.0 0.00 0.28 0.02 95 1015.4
20260902211353 71 98 0.0 0.0 0.00 0.28 0.02 95 1015.4
20260902211253 71 98 0.0 0.0 0.00 0.28 0.02 95 1015.4
20260902211151 71 98 0.0 0.0 0.00 0.28 0.02 95 1015.3
20260902211049 71 81 0.0 0.0 0.00 0.28 0.02 95 1015.3
20260902211020 71 81 0.0 0.0 0.00 0.28 0.02 95 1015.4
20260902211003 71 81 0.0 0.0 0.00 0.28 0.02 95 1015.3
20260902210953 71 79 0.0 0.0 0.00 0.28 0.02 95 1015.1
20260902210948 71 81 0.0 0.0 0.00 0.28 0.02 95 1015.3
20260902210941 71 64 0.0 0.0 0.00 0.28 0.02 95 1015.1
20260902210935 71 81 0.0 0.0 0.00 0.28 0.02 95 1015.2
20260902210821 71 81 0.0 0.0 0.00 0.28 0.02 95 1015.2
20260902210703 71 96 0.0 0.0 0.00 0.28 0.02 95 1015.1
20260902210520 71 64 0.0 0.0 0.00 0.28 0.02 95 1015.2
20260902210348 71 44 0.0 0.0 0.00 0.28 0.02 95 1015.2
20260902210247 71 63 0.0 0.0 0.00 0.28 0.02 95 1015.2
20260902210146 71 104 0.0 0.0 0.00 0.28 0.02 95 1015.3
20260902210046 71 89 0.0 0.0 0.00 0.28 0.02 95 1015.2
20260902210026 71 101 0.0 0.0 0.00 0.28 0.02 95 1015.3
20260902210021 71 104 0.0 0.0 0.00 0.28 0.02 95 1015.2
20260902210015 71 104 0.0 0.0 0.00 0.28 0.02 95 1015.2
20260902205902 71 90 0.0 0.0 0.00 0.28 0.02 95 1015.4
20260902205858 71 109 0.0 0.0 0.00 0.28 0.02 95 1015.2
20260902205849 71 98 0.0 0.0 0.00 0.28 0.02 95 1015.2
20260902205626 71 101 0.0 0.0 0.00 0.28 0.02 95 1015.3
20260902205520 71 71 0.0 0.0 0.00 0.28 0.02 95 1015.5
20260902205512 71 90 0.0 0.0 0.00 0.28 0.02 95 1015.4
20260902205249 71 92 0.0 0.0 0.00 0.28 0.02 95 1015.4
20260902205108 71 96 0.0 0.0 0.00 0.28 0.02 95 1015.3
20260902205035 71 65 0.0 0.0 0.00 0.28 0.02 95 1015.3
20260902204940 71 65 0.0 0.0 0.00 0.28 0.02 95 1015.2
20260902204840 71 80 0.0 0.0 0.00 0.28 0.02 95 1015.2
20260902204738 71 85 0.0 0.0 0.00 0.28 0.02 95 1015.1
20260902204638 71 69 0.0 0.0 0.00 0.28 0.02 95 1015.1
20260902204538 71 81 0.0 0.0 0.00 0.28 0.02 95 1015.2
20260902204521 71 81 0.0 0.0 0.00 0.28 0.02 95 1015.3
20260902204500 71 81 0.0 0.0 0.00 0.28 0.02 95 1015.2
20260902204436 71 81 0.0 0.0 0.00 0.28 0.02 95 1015.2
20260902204336 71 82 0.0 0.0 0.00 0.28 0.02 95 1015.3
20260902204248 71 76 0.0 0.0 0.00 0.28 0.02 95 1015.3
20260902204244 71 89 0.0 0.0 0.00 0.28 0.02 95 1015.3
20260902204034 71 76 0.0 0.0 0.00 0.28 0.02 95 1015.4
20260902204020 71 76 0.0 0.0 0.00 0.28 0.02 95 1015.5
20260902203958 71 76 0.0 0.0 0.00 0.28 0.02 95 1015.4
20260902203934 71 76 0.0 0.0 0.00 0.28 0.02 95 1015.4
20260902203847 71 69 0.0 0.0 0.00 0.28 0.02 95 1015.5
20260902203843 71 76 0.0 0.0 0.00 0.28 0.02 95 1015.4
20260902203634 71 69 0.0 0.0 0.00 0.28 0.02 95 1015.5
20260902203605 71 69 0.0 0.0 0.00 0.28 0.02 95 1015.6
20260902203548 71 69 0.0 0.0 0.00 0.28 0.02 95 1015.5
20260902203538 71 69 0.0 0.0 0.00 0.28 0.02 95 1015.5
20260902203332 71 78 0.0 0.0 0.00 0.28 0.02 95 1015.6
20260902203232 71 67 0.0 0.0 0.00 0.28 0.02 95 1015.6
20260902203210 71 81 0.0 0.0 0.00 0.28 0.02 95 1015.5
20260902203132 71 62 0.0 0.0 0.00 0.28 0.02 95 1015.5
20260902203103 71 80 0.0 0.0 0.00 0.28 0.02 95 1015.5
20260902203020 71 80 0.0 0.0 0.00 0.28 0.02 95 1015.6
20260902202930 71 49 0.0 0.0 0.00 0.28 0.02 95 1015.5
20260902202830 71 49 0.0 0.0 0.00 0.28 0.02 95 1015.5
20260902202730 71 49 0.0 0.0 0.00 0.28 0.02 95 1015.4
20260902202628 71 47 0.0 0.0 0.00 0.28 0.02 95 1015.5
20260902202528 71 47 0.0 0.0 0.00 0.28 0.02 95 1015.5
20260902202521 71 47 0.0 0.0 0.00 0.28 0.02 95 1015.5
20260902202440 71 47 0.0 0.0 0.00 0.28 0.02 95 1015.5
20260902202436 71 47 0.0 0.0 0.00 0.28 0.02 95 1015.4
20260902202227 71 47 0.0 0.0 0.00 0.28 0.02 95 1015.5
20260902202126 71 47 0.0 0.0 0.00 0.28 0.02 95 1015.5
20260902202026 71 69 0.0 0.0 0.00 0.28 0.02 95 1015.5
20260902202020 71 69 0.0 0.0 0.00 0.28 0.02 95 1015.7
20260902201925 71 69 0.0 0.0 0.00 0.28 0.02 95 1015.6
20260902201825 71 69 0.0 0.0 0.00 0.28 0.02 95 1015.6
20260902201725 71 69 0.0 0.0 0.00 0.28 0.02 95 1015.6
20260902201624 71 61 0.0 0.0 0.00 0.28 0.02 95 1015.6
20260902201538 71 59 0.0 0.0 0.00 0.28 0.02 95 1015.6
20260902201530 71 67 0.0 0.0 0.00 0.28 0.02 95 1015.6
20260902201520 71 67 0.0 0.0 0.00 0.28 0.02 95 1015.7
20260902201322 71 67 0.0 0.0 0.00 0.28 0.02 95 1015.6
20260902201221 71 67 0.0 0.0 0.00 0.28 0.02 95 1015.6
20260902201153 71 66 0.0 0.0 0.00 0.28 0.02 95 1015.5
20260902201149 71 60 0.0 0.0 0.00 0.28 0.02 95 1015.4
20260902201144 71 66 0.0 0.0 0.00 0.28 0.02 95 1015.5
20260902201027 71 66 0.0 0.0 0.00 0.28 0.02 95 1015.4
20260902201020 71 66 0.0 0.0 0.00 0.28 0.02 95 1015.5
20260902200820 71 84 0.0 0.0 0.00 0.28 0.02 95 1015.4
20260902200801 71 110 0.0 0.0 0.00 0.28 0.02 95 1015.4
20260902200754 71 90 0.0 0.0 0.00 0.28 0.02 95 1015.4
20260902200641 71 57 0.0 0.0 0.00 0.28 0.02 95 1015.4
20260902200632 71 93 0.0 0.0 0.00 0.28 0.02 95 1015.4
20260902200520 71 110 0.0 0.0 0.00 0.28 0.02 95 1015.5
20260902200317 71 97 0.0 0.0 0.00 0.28 0.02 95 1015.4
20260902200217 71 82 0.0 0.0 0.00 0.28 0.02 95 1015.4
20260902200116 71 76 0.0 0.0 0.00 0.28 0.02 95 1015.5
20260902200035 71 78 0.0 0.0 0.00 0.28 0.02 95 1015.5
20260902200016 71 78 0.0 0.0 0.00 0.28 0.02 95 1015.5
20260902195946 71 78 0.0 0.0 0.00 0.28 0.02 95 1015.4
20260902195913 71 86 0.0 0.0 0.00 0.28 0.02 95 1015.4
20260902195814 71 119 0.0 0.0 0.00 0.28 0.02 95 1015.4
20260902195712 71 119 0.0 0.0 0.00 0.28 0.02 95 1015.4
20260902195612 71 119 0.0 0.0 0.00 0.28 0.02 95 1015.4
20260902195520 71 105 0.0 0.0 0.00 0.28 0.02 95 1015.5
20260902195512 71 105 0.0 0.0 0.00 0.28 0.02 95 1015.4
20260902195446 71 105 0.0 0.0 0.00 0.28 0.02 95 1015.4
20260902195439 71 105 0.0 0.0 0.00 0.28 0.02 95 1015.4
20260902195434 71 75 0.0 0.0 0.00 0.28 0.02 95 1015.3
20260902195429 71 105 0.0 0.0 0.00 0.28 0.02 95 1015.4
20260902195111 71 104 0.0 0.0 0.00 0.28 0.02 95 1015.3
20260902195020 71 104 0.0 0.0 0.00 0.28 0.02 95 1015.4
20260902195009 71 104 0.0 0.0 0.00 0.28 0.02 95 1015.2
20260902194944 71 104 0.0 0.0 0.00 0.28 0.02 95 1015.3
20260902194910 71 101 0.0 0.0 0.00 0.28 0.02 95 1015.3
20260902194810 71 84 0.0 0.0 0.00 0.28 0.02 95 1015.3
20260902194709 71 102 0.0 0.0 0.00 0.28 0.02 95 1015.4
20260902194609 71 65 0.0 0.0 0.00 0.28 0.02 95 1015.4
20260902194520 71 65 0.0 0.0 0.00 0.28 0.02 95 1015.5
20260902194508 71 65 0.0 0.0 0.00 0.28 0.02 95 1015.4
20260902194442 71 92 0.0 0.0 0.00 0.28 0.02 95 1015.4
20260902194421 71 104 0.0 0.0 0.00 0.28 0.02 95 1015.5
20260902194416 71 65 0.0 0.0 0.00 0.28 0.02 95 1015.4
20260902194207 71 113 0.0 0.0 0.00 0.28 0.02 95 1015.5
20260902194106 71 80 0.0 0.0 0.00 0.28 0.02 95 1015.5
20260902194020 71 66 0.0 0.0 0.00 0.28 0.02 95 1015.5
20260902194012 71 66 0.0 0.0 0.00 0.28 0.02 95 1015.5
20260902193818 71 78 0.0 0.0 0.00 0.28 0.02 95 1015.4
20260902193814 71 65 0.0 0.0 0.00 0.28 0.02 95 1015.4
20260902193603 71 80 0.0 0.0 0.00 0.28 0.02 95 1015.5
20260902193535 71 76 0.0 0.0 0.00 0.28 0.02 95 1015.5
20260902193530 71 83 0.0 0.0 0.00 0.28 0.02 95 1015.5
20260902193525 71 80 0.0 0.0 0.00 0.28 0.02 95 1015.5
20260902193520 71 80 0.0 0.0 0.00 0.28 0.02 95 1015.6
20260902193517 71 80 0.0 0.0 0.00 0.28 0.02 95 1015.5
20260902193201 71 77 0.0 0.0 0.00 0.28 0.02 95 1015.5
20260902193101 71 69 0.0 0.0 0.00 0.28 0.02 95 1015.5
20260902193035 71 111 0.0 0.0 0.00 0.28 0.02 95 1015.6
20260902193000 71 92 0.0 0.0 0.00 0.28 0.02 95 1015.5
20260902192940 71 65 0.0 0.0 0.00 0.28 0.02 95 1015.5
20260902192900 71 64 0.0 0.0 0.00 0.28 0.02 95 1015.5
20260902192800 71 64 0.0 0.0 0.00 0.28 0.02 95 1015.5
20260902192658 71 49 0.0 0.0 0.00 0.28 0.02 95 1015.6
20260902192558 71 82 0.0 0.0 0.00 0.28 0.02 95 1015.5
20260902192520 71 115 0.0 0.0 0.00 0.28 0.02 95 1015.7
20260902192457 71 114 0.0 0.0 0.00 0.28 0.02 95 1015.6
20260902192440 71 105 0.0 0.0 0.00 0.28 0.02 95 1015.6
20260902192357 71 80 0.0 0.0 0.00 0.28 0.02 95 1015.5
20260902192257 71 83 0.0 0.0 0.00 0.28 0.02 95 1015.6
20260902192208 71 76 0.0 0.0 0.00 0.28 0.02 95 1015.6
20260902192204 71 88 0.0 0.0 0.00 0.28 0.02 95 1015.6
20260902192020 71 62 0.0 0.0 0.00 0.28 0.02 95 1015.7
20260902191956 71 62 0.0 0.0 0.00 0.28 0.02 95 1015.6
20260902191939 71 98 0.0 0.0 0.00 0.28 0.02 95 1015.6
20260902191855 71 107 0.0 0.0 0.00 0.28 0.02 95 1015.6
20260902191755 71 107 0.0 0.0 0.00 0.28 0.02 95 1015.6
20260902191653 71 97 0.0 0.0 0.00 0.28 0.02 95 1015.6
20260902191553 71 85 0.0 0.0 0.00 0.28 0.02 95 1015.6
20260902191520 71 75 0.0 0.0 0.00 0.28 0.02 95 1015.8
20260902191453 71 71 0.0 0.0 0.00 0.28 0.02 95 1015.7
20260902191439 71 98 0.0 0.0 0.00 0.28 0.02 95 1015.7
20260902191414 71 101 0.0 0.0 0.00 0.28 0.02 95 1015.6
20260902191300 71 85 0.0 0.0 0.00 0.28 0.02 95 1015.7
20260902191049 71 71 0.0 0.0 0.00 0.28 0.02 95 1015.6
20260902191020 71 60 0.0 0.0 0.00 0.28 0.02 95 1015.7
20260902190939 71 60 0.0 0.0 0.00 0.28 0.02 95 1015.6
20260902190902 71 81 0.0 0.0 0.00 0.28 0.02 95 1015.8
20260902190857 71 94 0.0 0.0 0.00 0.28 0.02 95 1015.7
20260902190648 71 87 0.0 0.0 0.00 0.28 0.02 95 1015.8
20260902190548 71 87 0.0 0.0 0.00 0.28 0.02 95 1015.9
20260902190520 71 87 0.0 0.0 0.00 0.28 0.02 95 1016.0
20260902190438 71 87 0.0 0.0 0.00 0.28 0.02 95 1015.9
20260902190347 71 82 0.0 0.0 0.00 0.28 0.02 95 1015.9
20260902190259 71 83 0.0 0.0 0.00 0.28 0.02 95 1015.9
20260902190255 71 74 0.0 0.0 0.00 0.28 0.02 95 1015.9
20260902190100 71 102 0.0 0.0 0.00 0.28 0.02 95 1015.9
20260902190055 71 102 0.0 0.0 0.00 0.28 0.02 95 1015.8
20260902190020 71 102 0.0 0.0 0.00 0.28 0.02 95 1016.0
20260902185939 71 102 0.0 0.0 0.00 0.28 0.02 95 1015.9
20260902185900 71 102 0.0 0.0 0.00 0.28 0.02 95 1016.0
20260902185855 71 102 0.0 0.0 0.00 0.28 0.02 95 1015.9
20260902185646 71 102 0.0 0.0 0.00 0.28 0.02 95 1016.0
20260902185558 71 103 0.0 0.0 0.00 0.28 0.02 95 1016.2
20260902185554 71 102 0.0 0.0 0.00 0.28 0.02 95 1016.1
20260902185520 71 102 0.0 0.0 0.00 0.28 0.02 95 1016.3
20260902185438 71 103 0.0 0.0 0.00 0.28 0.02 95 1016.2
20260902185344 71 103 0.0 0.0 0.00 0.28 0.02 95 1016.3
20260902185311 71 108 0.0 0.0 0.00 0.28 0.02 95 1016.3
20260902185307 71 108 0.0 0.0 0.00 0.28 0.02 95 1016.4
20260902185301 71 108 0.0 0.0 0.00 0.28 0.02 95 1016.3
20260902185035 71 108 0.0 0.0 0.00 0.28 0.02 95 1016.5
20260902184938 71 108 0.0 0.0 0.00 0.28 0.02 95 1016.4
20260902184842 71 108 0.0 0.0 0.00 0.28 0.02 95 1016.3
20260902184740 71 108 0.0 0.0 0.00 0.28 0.02 95 1016.3
20260902184726 71 108 0.0 0.0 0.00 0.28 0.02 95 1016.3
20260902184722 71 108 0.0 0.0 0.00 0.28 0.02 95 1016.3
20260902184718 71 108 0.0 0.0 0.00 0.28 0.02 95 1016.3
20260902184713 71 108 0.0 0.0 0.00 0.28 0.02 95 1016.3
20260902184520 71 108 0.0 0.0 0.00 0.28 0.02 95 1016.4
20260902184447 71 108 0.0 0.0 0.00 0.28 0.02 95 1016.3
20260902184239 71 108 0.0 0.0 0.00 0.28 0.02 95 1016.3
20260902184139 71 108 0.0 0.0 0.00 0.28 0.02 95 1016.3
20260902184037 71 108 0.0 0.0 0.00 0.28 0.02 95 1016.4
20260902184021 71 108 0.0 0.0 0.00 0.28 0.02 95 1016.5
20260902183956 71 84 0.0 0.0 0.00 0.28 0.02 95 1016.4
20260902183947 71 108 0.0 0.0 0.00 0.28 0.02 95 1016.4
20260902183749 71 83 0.0 0.0 0.00 0.28 0.02 94 1016.4
20260902183745 71 84 0.0 0.0 0.00 0.28 0.02 94 1016.4
20260902183535 71 92 0.0 0.0 0.01 0.28 0.02 94 1016.6
20260902183433 71 92 0.0 0.0 0.01 0.28 0.02 94 1016.5
20260902183333 71 92 0.0 0.0 0.01 0.28 0.02 94 1016.4
20260902183233 71 92 0.0 0.0 0.01 0.28 0.02 94 1016.4
20260902183133 71 92 0.0 0.0 0.01 0.28 0.02 94 1016.5
20260902183031 71 92 0.0 0.0 0.01 0.28 0.02 94 1016.5
20260902183020 71 92 0.0 0.0 0.01 0.28 0.02 94 1016.6
20260902182932 71 92 0.0 0.0 0.01 0.28 0.02 94 1016.5
20260902182830 71 92 0.0 0.0 0.01 0.28 0.02 94 1016.4
20260902182742 71 97 0.0 0.0 0.01 0.28 0.02 94 1016.5
20260902182738 71 97 0.0 0.0 0.01 0.28 0.02 94 1016.5
20260902182528 71 97 0.0 0.0 0.01 0.28 0.02 94 1016.5
20260902182521 71 97 0.0 0.0 0.01 0.28 0.02 94 1016.6
20260902182428 71 97 0.0 0.0 0.01 0.28 0.02 94 1016.5
20260902182327 71 97 0.0 0.0 0.01 0.28 0.02 94 1016.5
20260902182226 71 97 0.0 0.0 0.01 0.28 0.02 94 1016.5
20260902182126 71 97 0.0 0.0 0.01 0.28 0.02 94 1016.5
20260902182026 71 97 0.0 0.0 0.01 0.28 0.02 94 1016.6
20260902182020 71 97 0.0 0.0 0.01 0.28 0.02 94 1016.7
20260902181925 71 97 0.0 0.0 0.01 0.28 0.02 94 1016.6
20260902181839 71 97 0.0 0.0 0.01 0.28 0.02 94 1016.7
20260902181834 71 97 0.0 0.0 0.01 0.28 0.02 94 1016.6
20260902181625 71 97 0.0 0.0 0.01 0.28 0.02 94 1016.7
20260902181539 71 97 0.0 0.0 0.01 0.28 0.02 94 1016.8
20260902181530 71 97 0.0 0.0 0.01 0.28 0.02 94 1016.8
20260902181520 71 97 0.0 0.0 0.01 0.28 0.02 94 1016.9
20260902181337 71 97 0.0 0.0 0.01 0.28 0.02 94 1016.8
20260902181333 71 97 0.0 0.0 0.01 0.28 0.02 94 1016.8
20260902181122 71 97 0.0 0.0 0.01 0.28 0.02 94 1016.8
20260902181050 71 97 0.0 0.0 0.01 0.28 0.02 94 1016.9
20260902181036 71 97 0.0 0.0 0.01 0.28 0.02 94 1016.8
20260902181027 71 97 0.0 0.0 0.01 0.28 0.02 94 1016.8
20260902180822 71 97 0.0 0.0 0.01 0.28 0.02 94 1016.8
20260902180748 71 97 0.0 0.0 0.01 0.28 0.02 94 1016.8
20260902180744 71 97 0.0 0.0 0.01 0.28 0.02 94 1016.8
20260902180738 71 97 0.0 0.0 0.01 0.28 0.02 94 1016.8
20260902180520 71 97 0.0 0.0 0.01 0.28 0.02 94 1017.0
20260902180419 71 97 0.0 0.0 0.01 0.28 0.02 94 1016.9
20260902180319 71 97 0.0 0.0 0.01 0.28 0.02 94 1016.9
20260902180220 71 97 0.0 0.0 0.01 0.28 0.02 94 1016.9
20260902180119 71 97 0.0 0.0 0.01 0.28 0.02 94 1017.0
20260902180020 71 97 0.0 0.0 0.01 0.28 0.02 94 1017.0
20260902175918 71 97 0.0 0.0 0.01 0.28 0.02 94 1016.9
20260902175816 71 97 0.0 0.0 0.01 0.28 0.02 94 1016.9
20260902175716 71 97 0.0 0.0 0.01 0.28 0.02 94 1017.0
20260902175616 71 97 0.0 2.0 0.01 0.28 0.02 94 1017.0
20260902175520 71 97 0.0 2.0 0.01 0.28 0.02 94 1017.0
20260902175515 71 97 0.0 2.0 0.01 0.28 0.02 94 1016.9
20260902175415 71 97 0.0 2.0 0.01 0.28 0.02 94 1016.9
20260902175315 71 97 0.0 2.0 0.01 0.28 0.02 94 1016.8
20260902175213 71 97 0.0 2.0 0.01 0.28 0.02 94 1016.8
20260902175113 71 97 0.0 2.0 0.01 0.28 0.02 93 1016.8
20260902175020 71 97 0.0 2.0 0.01 0.28 0.02 93 1016.8
20260902175012 71 97 0.0 2.0 0.01 0.28 0.02 93 1016.8
20260902174927 71 97 0.0 3.0 0.01 0.28 0.02 93 1016.7
20260902174912 71 97 0.0 4.0 0.01 0.28 0.02 93 1016.7
20260902174812 71 97 0.0 4.0 0.01 0.28 0.02 93 1016.7
20260902174711 71 97 1.0 5.0 0.01 0.28 0.02 93 1016.7
20260902174611 71 97 1.0 5.0 0.01 0.28 0.02 93 1016.7
20260902174520 71 97 0.0 6.0 0.01 0.28 0.02 93 1016.8
20260902174513 71 97 1.0 6.0 0.01 0.28 0.02 93 1016.7
20260902174424 71 97 1.0 6.0 0.01 0.28 0.02 93 1016.7
20260902174410 71 97 1.0 7.0 0.01 0.28 0.02 93 1016.7
20260902174309 71 97 1.0 8.0 0.01 0.28 0.02 93 1016.7
20260902174223 71 97 2.0 8.0 0.01 0.28 0.02 93 1016.6
20260902174218 71 97 1.0 8.0 0.01 0.28 0.02 93 1016.6
20260902174102 71 64 2.0 8.0 0.01 0.28 0.02 93 1016.5
20260902174058 71 87 2.0 8.0 0.01 0.28 0.02 93 1016.4
20260902174051 71 97 2.0 8.0 0.01 0.28 0.02 93 1016.5
20260902174044 71 96 2.0 8.0 0.01 0.28 0.02 93 1016.5
20260902174035 71 97 0.0 8.0 0.01 0.28 0.02 93 1016.6
20260902173823 71 137 2.0 8.0 0.01 0.28 0.02 93 1016.4
20260902173520 71 107 0.0 8.0 0.00 0.27 0.01 93 1016.4
20260902173505 71 106 2.0 8.0 0.00 0.27 0.01 93 1016.3
20260902173423 71 102 2.0 8.0 0.00 0.27 0.01 93 1016.3
20260902173404 71 102 2.0 4.0 0.00 0.27 0.01 93 1016.2
20260902173304 71 115 2.0 4.0 0.00 0.27 0.01 93 1016.2
20260902173203 71 107 2.0 4.0 0.00 0.27 0.01 92 1016.2
20260902173139 71 105 2.0 6.0 0.00 0.27 0.01 92 1016.4
20260902173103 71 107 2.0 4.0 0.00 0.27 0.01 93 1016.3
20260902173029 71 107 2.0 6.0 0.00 0.27 0.01 92 1016.4
20260902173020 71 107 3.0 6.0 0.00 0.27 0.01 92 1016.5
20260902172901 71 105 2.0 6.0 0.00 0.27 0.01 92 1016.5
20260902172802 71 105 2.0 6.0 0.00 0.27 0.01 92 1016.5
20260902172753 71 100 2.0 6.0 0.00 0.27 0.01 92 1016.6
20260902172601 71 100 2.0 6.0 0.00 0.27 0.01 92 1016.6
20260902172535 71 101 2.0 6.0 0.00 0.27 0.01 92 1016.7
20260902172528 71 101 2.0 6.0 0.00 0.27 0.01 92 1016.6
20260902172401 71 107 2.0 6.0 0.00 0.27 0.01 92 1016.6
20260902172300 71 108 2.0 6.0 0.00 0.27 0.01 92 1016.7
20260902172159 71 107 2.0 6.0 0.00 0.27 0.01 92 1016.7
20260902172059 71 110 2.0 4.0 0.00 0.27 0.01 92 1016.8
20260902172020 71 108 2.0 4.0 0.00 0.27 0.01 92 1016.9
20260902171958 71 108 2.0 4.0 0.00 0.27 0.01 92 1016.8
20260902171918 71 119 2.0 5.0 0.00 0.27 0.01 92 1016.8
20260902171858 71 119 2.0 5.0 0.00 0.27 0.01 92 1016.9
20260902171758 71 111 2.0 5.0 0.00 0.27 0.01 92 1016.9
20260902171657 71 111 2.0 5.0 0.00 0.27 0.01 92 1017.0
20260902171639 71 111 2.0 5.0 0.00 0.27 0.01 92 1017.0
20260902171557 71 111 2.0 5.0 0.00 0.27 0.01 92 1017.0
20260902171526 71 111 2.0 5.0 0.00 0.27 0.01 92 1017.0
20260902171520 72 111 2.0 4.0 0.00 0.27 0.01 92 1017.1
20260902171355 71 115 2.0 5.0 0.00 0.27 0.01 92 1017.0
20260902171255 71 161 2.0 5.0 0.00 0.27 0.01 92 1017.1
20260902171209 71 162 2.0 5.0 0.00 0.27 0.01 92 1017.1
20260902171204 71 162 2.0 5.0 0.00 0.27 0.01 92 1017.1
20260902171020 72 168 4.0 4.0 0.00 0.27 0.01 91 1017.3
20260902170955 72 169 2.0 5.0 0.00 0.27 0.01 91 1017.2
20260902170919 72 116 2.0 4.0 0.00 0.27 0.01 91 1017.2
20260902170855 72 116 2.0 4.0 0.00 0.27 0.01 91 1017.2
20260902170809 72 116 2.0 4.0 0.00 0.27 0.01 91 1017.2
20260902170805 72 116 2.0 4.0 0.00 0.27 0.01 91 1017.2
20260902170555 72 116 2.0 4.0 0.00 0.27 0.01 91 1017.3
20260902170520 72 116 2.0 4.0 0.00 0.27 0.01 91 1017.4
20260902170454 72 116 2.0 4.0 0.00 0.27 0.01 91 1017.3
20260902170416 72 117 2.0 4.0 0.00 0.27 0.01 91 1017.3
20260902170355 72 116 2.0 4.0 0.00 0.27 0.01 91 1017.3
20260902170251 72 117 2.0 4.0 0.00 0.27 0.01 91 1017.3
20260902170151 72 103 2.0 4.0 0.00 0.27 0.01 92 1017.3
20260902170051 72 102 2.0 4.0 0.00 0.27 0.01 92 1017.3
20260902170020 72 102 0.0 4.0 0.00 0.27 0.01 92 1017.4
20260902165950 72 102 2.0 4.0 0.00 0.27 0.01 92 1017.3
20260902165916 72 102 2.0 4.0 0.00 0.27 0.01 92 1017.3
20260902165851 72 102 2.0 4.0 0.00 0.27 0.01 91 1017.3
20260902165750 72 102 2.0 4.0 0.00 0.27 0.01 91 1017.2
20260902165650 72 101 2.0 4.0 0.00 0.27 0.01 91 1017.2
20260902165549 72 101 2.0 4.0 0.00 0.27 0.01 91 1017.2
20260902165520 72 101 1.0 4.0 0.00 0.27 0.01 91 1017.3
20260902165507 72 101 2.0 4.0 0.00 0.27 0.01 91 1017.2
20260902165356 72 101 2.0 4.0 0.00 0.27 0.01 91 1017.2
20260902165146 72 88 2.0 4.0 0.00 0.27 0.01 91 1017.3
20260902165046 72 88 2.0 4.0 0.00 0.27 0.01 92 1017.2
20260902165020 72 87 3.0 4.0 0.00 0.27 0.01 92 1017.3
20260902164944 72 84 2.0 4.0 0.00 0.27 0.01 92 1017.2
20260902164916 72 112 2.0 4.0 0.00 0.27 0.01 92 1017.2
20260902164844 72 112 2.0 4.0 0.00 0.27 0.01 92 1017.2
20260902164744 72 92 2.0 4.0 0.00 0.27 0.01 92 1017.2
20260902164644 72 92 2.0 4.0 0.00 0.27 0.01 92 1017.2
20260902164637 72 92 2.0 4.0 0.00 0.27 0.01 91 1017.2
20260902164631 72 92 2.0 4.0 0.00 0.27 0.01 91 1017.2
20260902164521 72 92 0.0 4.0 0.00 0.27 0.01 91 1017.3
20260902164355 72 83 3.0 7.0 0.00 0.27 0.01 91 1017.1
20260902164351 72 93 2.0 5.0 0.00 0.27 0.01 91 1017.2
20260902164204 72 63 2.0 7.0 0.00 0.27 0.01 91 1017.1
20260902164142 72 81 3.0 7.0 0.00 0.27 0.01 91 1017.1
20260902164109 72 63 2.0 7.0 0.00 0.27 0.01 91 1017.1
20260902164104 72 61 2.0 7.0 0.00 0.27 0.01 91 1017.1
20260902164055 72 46 2.0 7.0 0.00 0.27 0.01 91 1017.1
20260902164020 72 46 1.0 7.0 0.00 0.27 0.01 91 1017.2
20260902163815 72 69 2.0 7.0 0.00 0.27 0.01 92 1016.9
20260902163809 72 71 2.0 7.0 0.00 0.27 0.01 91 1017.0
20260902163547 72 112 2.0 7.0 0.00 0.27 0.01 91 1017.0
20260902163520 72 112 3.0 7.0 0.00 0.27 0.01 91 1017.1
20260902163412 72 72 2.0 7.0 0.00 0.27 0.01 92 1017.0
20260902163337 72 76 2.0 6.0 0.00 0.27 0.01 92 1017.1
20260902163237 72 59 2.0 6.0 0.00 0.27 0.01 92 1017.1
20260902163135 72 69 2.0 6.0 0.00 0.27 0.01 92 1017.1
20260902163035 72 78 2.0 6.0 0.00 0.27 0.01 92 1017.1
20260902163020 72 78 1.0 5.0 0.00 0.27 0.01 92 1017.2
20260902162951 72 78 2.0 6.0 0.00 0.27 0.01 92 1017.1
20260902162947 72 78 2.0 6.0 0.00 0.27 0.01 92 1017.1
20260902162939 72 78 2.0 6.0 0.00 0.27 0.01 92 1017.1
20260902162734 72 89 2.0 6.0 0.00 0.27 0.01 92 1017.1
20260902162632 72 89 1.0 6.0 0.00 0.27 0.01 92 1017.1
20260902162613 72 88 1.0 6.0 0.00 0.27 0.01 92 1017.1
20260902162520 72 88 1.0 5.0 0.00 0.27 0.01 92 1017.2
20260902162500 71 88 2.0 6.0 0.00 0.27 0.01 92 1017.1
20260902162455 71 88 2.0 6.0 0.00 0.27 0.01 92 1017.1
20260902162447 71 88 2.0 6.0 0.00 0.27 0.01 92 1017.1
20260902162131 71 88 2.0 6.0 0.00 0.27 0.01 92 1017.2
20260902162029 71 88 2.0 6.0 0.00 0.27 0.01 92 1017.2
20260902162020 72 84 4.0 5.0 0.00 0.27 0.01 92 1017.3